GFSSW_250_rhum_000.txt.gz
RH
12 12 13 14 15 14 14 15 15 39 67 84 92 100 100 100 100 97 75 82 92 94 82 88 84 83 77 79 82 75 80 69 65 62 50 38 32 24 14 15 9 9 11 12 14
12 12 15 17 18 18 18 16 18 19 34 59 78 88 91 92 100 99 98 88 67 62 68 77 60 76 75 80 77 69 60 57 47 40 34 25 20 6 7 9 12 16 14 14 17
14 16 18 21 26 29 26 22 22 23 31 57 73 84 87 86 84 96 94 86 84 90 74 69 70 73 66 60 53 51 37 39 38 36 21 9 6 9 14 17 18 18 20 20 21
21 21 24 28 30 30 30 26 24 27 32 50 65 82 80 80 74 77 80 81 76 81 64 61 50 41 49 43 35 28 25 14 11 9 10 11 13 18 20 22 23 24 29 34 38
34 37 44 55 51 35 26 36 44 41 26 24 34 52 72 70 66 63 57 54 51 42 40 28 28 28 29 18 10 10 11 11 11 12 16 16 19 21 24 30 29 31 34 36 35
74 74 64 66 68 68 79 98 76 64 73 81 84 79 81 60 52 46 39 32 27 21 17 14 12 9 9 9 9 10 11 12 13 15 18 23 24 25 28 28 29 30 30 31 34
100 100 100 100 100 100 100 100 100 99 97 82 76 62 50 28 28 20 13 9 8 8 8 8 9 10 9 10 11 13 14 17 18 21 26 28 26 26 28 30 31 31 45 56 54
100 100 100 100 100 100 100 100 94 76 57 38 22 18 14 13 11 10 10 11 11 11 11 11 11 11 11 13 17 20 21 21 23 27 30 36 35 46 32 32 36 57 72 100 98
100 100 100 100 99 94 83 68 47 29 24 20 19 17 15 15 14 13 12 13 12 12 12 12 11 12 13 15 23 22 22 22 23 28 34 36 39 52 47 40 66 80 93 100 88
100 96 88 83 79 68 44 34 35 35 30 24 22 20 17 17 16 15 14 14 14 14 14 14 13 12 17 16 21 22 23 26 25 28 33 42 52 55 59 78 78 94 100 100 100
88 83 67 48 34 33 36 45 42 32 31 27 25 20 20 21 18 17 16 16 16 16 16 15 14 15 16 23 24 25 26 23 23 27 30 42 46 42 63 86 82 83 93 86 100
53 37 45 62 63 54 59 54 41 37 36 31 24 18 20 27 24 17 17 17 17 17 18 16 16 18 21 26 23 21 22 25 22 23 28 40 38 36 43 57 59 50 58 64 66
44 63 67 59 61 52 52 41 34 34 44 31 23 23 23 24 32 26 20 19 18 19 18 18 16 17 17 18 21 23 22 19 16 16 32 27 24 27 34 33 41 52 53 71 92
66 62 56 43 43 39 35 31 32 41 49 32 26 27 26 29 46 37 26 20 19 21 19 19 19 19 19 19 22 26 21 20 17 22 20 28 27 33 43 43 48 62 60 67 80
62 58 54 41 39 34 32 33 37 43 29 24 24 26 26 28 35 58 41 26 23 22 18 19 22 23 22 26 30 29 28 33 22 21 25 25 24 26 31 41 42 38 32 38 55
59 56 53 41 34 34 35 45 40 26 21 22 25 26 26 29 32 43 48 37 24 24 21 21 25 28 28 30 37 44 32 27 30 32 30 27 24 23 18 15 20 25 19 21 35
68 54 43 39 38 35 44 50 35 30 28 29 30 33 34 31 30 37 36 35 29 24 26 23 24 27 35 47 63 50 49 35 23 30 33 32 32 31 23 19 15 15 16 17 24
54 45 43 40 35 41 42 46 45 33 41 41 43 49 44 32 37 37 43 31 34 27 27 26 24 34 34 49 40 41 40 44 48 42 43 40 36 30 24 22 24 24 26 28 32
50 44 37 30 36 36 34 43 49 41 44 46 52 73 43 34 37 37 33 27 22 28 26 22 30 36 38 43 42 47 48 44 42 43 44 43 39 31 29 26 27 27 28 34 43
50 39 38 50 47 40 44 51 60 62 66 61 43 70 55 55 31 21 20 23 23 18 22 25 25 31 40 42 39 29 31 34 33 28 27 30 34 45 32 27 25 27 48 62 58
51 41 56 60 64 84 68 63 65 73 74 75 59 60 63 50 47 22 20 22 20 18 19 21 22 26 28 27 22 22 22 24 25 26 27 23 38 44 33 28 29 45 45 42 44
65 49 54 67 73 85 92 87 76 87 76 84 71 61 64 49 35 29 16 17 19 18 18 20 23 24 25 23 22 23 22 20 18 23 30 29 49 47 52 45 66 58 49 47 48
76 59 51 57 64 75 80 85 78 74 74 78 62 56 47 34 39 32 22 19 16 16 18 20 22 21 19 20 19 22 28 34 41 47 44 40 32 35 33 37 44 52 50 46 47
68 64 56 52 57 61 68 68 68 69 71 75 88 59 60 50 32 27 25 24 24 23 18 17 18 18 20 26 38 68 78 80 80 95 81 85 60 58 58 60 66 61 59 79 88
62 66 52 47 49 52 65 65 60 54 55 58 66 74 74 62 64 50 40 40 31 34 34 33 32 36 48 50 50 64 58 68 84 83 65 71 81 75 72 65 60 73 86 76 67
68 72 63 58 43 46 58 57 50 47 60 58 62 63 66 56 78 58 56 48 42 42 54 59 55 55 100 71 70 90 77 80 83 84 79 65 65 68 72 77 83 72 63 85 81
76 78 71 64 49 50 51 50 48 59 75 80 69 62 60 64 64 71 89 60 67 69 66 59 53 57 79 87 78 97 84 84 70 64 64 68 74 82 82 70 59 52 74 75 65

GFSSW_250_rhum_003.txt.gz
RH
9 9 10 12 12 13 13 13 14 20 25 29 42 77 90 91 99 94 92 83 81 99 96 100 92 81 76 95 90 99 90 92 95 81 53 47 57 55 46 46 44 32 20 9 10
9 10 11 13 13 13 14 11 4 4 10 14 20 42 49 59 84 96 93 86 88 88 100 97 90 86 63 57 35 73 70 52 48 71 66 60 47 46 34 26 22 11 10 12 15
12 13 13 13 14 18 14 9 14 13 14 15 12 10 18 38 58 82 84 87 86 89 75 81 83 97 82 67 78 79 74 67 67 67 54 35 26 16 10 10 10 16 18 21 24
14 12 13 16 18 19 17 16 16 20 21 21 20 11 12 17 30 52 72 75 75 80 85 68 74 79 73 69 60 59 58 53 46 24 14 12 12 12 12 16 20 19 22 33 35
15 17 19 24 33 30 32 36 42 44 34 33 26 46 27 18 43 57 68 69 73 53 63 58 54 53 53 50 47 35 27 26 16 10 9 11 14 19 20 22 25 26 27 28 31
23 28 35 49 56 59 57 50 43 36 29 29 36 36 44 45 51 49 53 50 45 47 41 35 34 25 22 21 19 10 10 10 11 12 14 18 19 22 28 29 28 28 26 28 26
56 63 72 70 73 85 70 70 94 97 94 82 98 92 82 76 59 45 30 24 22 15 13 16 14 10 10 10 9 10 10 12 15 20 22 21 25 27 28 27 26 29 31 40 46
100 100 100 100 100 100 100 100 100 100 98 82 71 53 42 27 21 15 13 11 10 9 9 9 10 10 11 12 10 12 15 18 22 26 26 26 24 27 26 34 41 45 47 40 44
100 100 100 100 100 100 100 96 89 79 60 39 23 20 16 14 13 13 12 12 12 12 12 12 12 12 13 15 14 20 20 24 28 32 36 43 50 49 32 41 48 65 75 80 89
100 100 100 100 100 98 82 73 60 37 23 22 18 17 18 16 16 15 14 13 13 14 13 12 12 13 13 16 18 23 24 22 23 30 38 42 51 50 48 57 69 75 95 96 95
100 100 100 99 90 85 73 53 38 33 29 25 23 20 16 18 18 18 15 14 15 16 16 14 13 13 16 19 19 21 20 21 22 27 30 33 37 43 51 50 62 62 61 68 84
99 89 84 75 66 58 44 34 35 31 27 24 25 19 17 17 22 21 18 16 18 16 17 18 15 15 17 17 20 23 27 28 28 25 22 22 26 27 30 27 42 42 40 50 55
86 78 71 61 49 40 40 40 34 28 27 32 23 20 20 22 24 27 22 17 19 18 18 19 16 16 18 21 22 28 27 22 23 22 21 17 18 23 22 23 28 32 32 43 36
68 60 54 57 60 57 57 43 34 29 31 35 26 20 22 25 25 34 34 27 23 20 19 19 18 17 18 19 21 21 20 20 21 19 23 17 17 22 25 24 35 39 41 33 38
72 61 56 63 57 46 36 30 30 36 42 24 20 23 24 25 28 27 34 37 29 23 20 18 18 19 21 20 20 21 23 24 28 24 22 19 19 20 20 20 22 25 21 22 23
64 66 45 44 40 36 34 35 40 43 24 21 24 28 30 32 30 31 30 33 43 33 24 20 19 20 24 28 28 27 30 31 30 25 20 20 21 24 21 19 19 23 21 21 26
67 55 61 46 36 35 36 36 42 34 30 32 31 38 38 44 42 36 35 31 34 54 31 21 22 21 22 28 35 41 30 32 36 38 40 39 30 24 20 19 23 22 19 24 28
64 60 57 47 41 39 33 36 39 44 40 40 41 40 38 52 40 32 39 34 42 51 46 26 21 21 21 29 44 52 51 43 41 45 48 40 37 41 33 27 28 31 34 31 25
70 58 45 43 41 35 38 34 40 52 49 52 58 56 55 61 50 30 26 30 29 31 36 25 20 20 22 28 33 40 35 31 26 26 27 28 28 24 22 25 29 43 51 38 38
60 48 43 39 35 32 37 40 46 52 57 64 61 50 46 70 43 38 26 18 19 23 26 21 18 20 22 25 28 32 29 27 27 21 21 22 22 28 28 41 64 61 44 44 41
51 46 45 45 50 52 47 47 58 60 66 63 77 76 65 69 36 28 28 18 19 21 21 17 17 19 22 25 25 28 28 28 22 20 22 20 49 38 45 67 71 62 65 64 60
50 48 47 60 68 70 80 75 75 75 76 80 76 82 71 80 65 44 34 27 21 19 20 20 17 18 19 20 21 20 20 19 20 30 35 39 61 69 58 61 64 66 65 56 48
59 55 48 56 67 70 74 80 76 80 77 90 88 88 84 79 58 48 36 26 26 27 22 18 16 17 18 19 19 19 21 30 44 49 50 58 48 51 44 48 51 51 53 59 59
60 66 67 49 47 60 65 72 70 69 76 76 78 75 83 75 77 65 60 39 34 30 30 31 33 32 30 28 32 40 49 57 54 53 49 59 62 70 72 69 68 65 62 53 45
57 58 65 63 47 49 57 59 64 67 67 61 56 52 52 61 72 84 88 79 49 40 40 45 40 45 56 56 58 71 58 62 63 61 68 81 86 66 60 62 60 55 50 50 50
54 55 60 62 60 61 55 52 55 62 62 53 47 53 53 56 64 67 69 69 67 46 41 60 60 75 85 56 54 68 57 53 59 60 62 63 61 60 56 48 46 49 50 52 53
67 68 69 67 63 69 65 50 46 43 51 53 47 49 68 76 69 60 58 49 47 50 56 67 76 71 68 60 54 99 71 55 49 50 52 58 52 40 40 40 44 41 44 50 54

GFSSW_250_rhum_006.txt.gz
RH
9 9 9 10 9 9 11 13 17 19 21 22 34 59 100 99 100 100 100 100 97 100 100 100 98 94 96 100 86 68 95 96 93 90 86 96 95 77 72 71 68 72 70 44 25
9 10 10 10 9 9 11 14 15 15 18 23 28 34 71 90 89 100 99 94 99 100 96 98 100 98 99 99 90 88 77 67 74 78 72 89 76 69 63 69 64 46 27 12 9
10 10 10 10 11 12 13 14 14 14 17 22 26 34 45 72 93 92 83 73 76 83 92 81 79 77 84 94 86 71 63 66 66 69 75 68 72 72 60 35 28 12 9 11 14
12 12 11 12 13 14 14 16 17 17 16 17 20 18 21 29 52 77 80 60 53 57 71 78 86 76 84 79 76 84 74 76 74 69 57 56 35 27 17 13 10 14 18 21 26
14 14 13 13 14 17 18 18 10 4 2 4 9 12 15 18 20 27 37 41 37 39 46 49 59 62 55 56 52 47 56 44 42 38 30 17 11 10 12 15 19 20 21 25 28
16 15 18 17 20 22 15 6 4 8 14 33 32 26 22 30 33 25 30 31 33 34 36 42 38 44 37 43 40 41 37 32 21 18 11 10 13 16 18 20 25 24 24 22 21
21 21 21 29 35 31 26 35 50 62 58 46 34 29 49 74 66 59 51 36 25 21 20 20 24 28 21 19 23 23 19 15 12 11 13 16 19 21 23 24 23 20 21 23 29
33 41 47 60 60 57 61 53 59 77 90 83 91 92 81 64 50 37 25 19 16 14 14 12 12 13 13 11 9 10 10 9 18 19 22 24 25 26 25 26 43 53 68 80 96
78 82 85 83 81 87 97 100 100 100 100 90 70 46 27 20 15 14 13 13 14 14 13 12 12 11 10 11 12 13 15 18 22 28 28 31 26 30 26 36 48 54 60 67 74
100 100 100 100 100 100 100 98 90 77 60 38 26 20 17 16 15 15 15 15 14 13 12 13 12 12 12 13 15 17 18 22 27 32 34 36 41 43 45 36 40 41 46 52 53
100 100 100 100 100 97 79 65 59 33 20 22 20 20 20 19 20 19 17 15 14 15 14 14 14 13 13 14 16 19 21 22 28 32 34 35 32 32 29 33 39 33 26 26 45
100 100 100 100 96 83 69 57 38 26 24 22 23 22 18 19 21 22 20 18 15 17 18 18 17 15 14 15 16 20 20 21 22 22 22 22 22 18 19 21 26 24 25 25 30
100 98 94 84 78 69 56 46 37 29 29 29 25 20 20 23 25 28 26 22 18 17 19 18 18 18 16 15 17 17 18 20 23 24 22 22 21 20 19 18 18 18 20 22 26
97 95 100 89 67 58 49 44 34 26 23 29 28 23 24 25 24 26 31 35 26 21 21 21 20 20 17 16 16 20 22 21 21 23 25 23 21 21 20 19 23 24 24 27 28
88 100 67 62 67 62 63 42 29 25 30 35 20 22 25 25 25 26 27 33 49 36 26 22 22 21 19 19 18 20 20 20 20 19 21 24 21 20 20 21 25 24 26 31 34
100 79 60 78 76 70 52 33 28 32 39 24 24 25 30 30 29 31 35 36 40 56 57 37 22 21 19 21 22 20 19 20 21 23 24 24 29 37 36 34 33 36 33 30 31
84 70 52 63 61 42 33 31 30 45 29 26 30 32 37 41 43 33 29 29 35 34 42 67 44 20 22 22 25 24 25 27 25 24 23 26 27 28 31 31 30 26 22 24 27
81 83 57 49 41 35 34 33 36 45 43 41 41 46 47 52 56 47 38 22 28 35 32 38 53 29 20 23 26 22 23 20 20 23 25 23 25 19 19 19 18 20 32 40 49
82 68 75 53 43 36 38 35 38 40 53 60 57 61 69 52 53 59 46 36 26 21 30 34 42 30 24 20 21 23 26 26 25 30 32 30 23 18 20 26 33 44 57 66 64
65 70 62 50 45 42 36 34 35 45 56 57 61 64 70 63 65 51 37 44 29 20 19 25 29 28 19 15 16 18 20 21 24 26 24 21 23 25 33 47 56 71 66 70 66
85 74 59 45 40 39 36 37 43 51 62 65 59 64 84 73 62 51 43 43 31 19 21 20 21 23 17 15 15 17 18 18 18 19 19 24 34 39 57 64 69 65 75 71 59
82 67 52 47 45 44 47 49 53 69 63 72 77 89 87 77 58 42 31 25 28 24 23 18 19 20 18 16 16 16 18 18 19 19 27 43 68 60 61 62 60 59 58 54 43
74 56 49 49 51 48 65 71 91 92 85 78 89 94 86 85 83 61 44 37 33 33 30 28 29 30 29 24 22 22 24 28 33 42 52 66 60 65 51 56 39 34 41 40 36
74 61 50 49 50 58 70 70 76 85 83 76 71 72 74 66 59 64 72 67 56 47 42 39 31 34 37 38 42 52 46 47 51 53 45 51 44 44 40 47 56 52 43 42 40
89 68 58 53 51 52 60 67 69 71 71 65 61 62 60 54 53 54 54 58 58 57 54 53 50 43 38 38 63 93 58 46 41 45 36 35 43 48 60 63 58 53 51 50 66
96 78 62 69 68 66 55 53 57 60 59 60 64 65 55 53 49 52 58 61 57 56 54 48 45 45 63 52 52 86 63 46 46 44 41 45 53 56 61 58 56 58 52 71 76
99 93 72 66 60 60 63 61 59 55 54 50 47 46 47 45 42 45 49 65 65 56 54 45 40 57 81 96 87 100 76 46 46 50 54 52 57 59 66 56 53 56 65 56 66

GFSSW_250_rhum_009.txt.gz
RH
8 8 9 9 9 9 10 12 14 19 20 24 23 20 17 24 48 91 100 100 100 100 100 100 89 100 96 99 100 100 91 96 80 97 100 99 97 86 78 82 94 90 74 82 69
8 9 9 9 9 9 10 10 12 14 16 22 22 21 21 19 24 45 86 98 100 100 100 99 99 100 100 100 100 100 79 88 97 92 97 100 89 84 70 80 95 88 69 50 28
9 9 10 9 10 10 10 9 10 12 14 16 18 22 24 24 20 26 46 71 98 100 100 100 88 90 87 97 93 89 87 76 82 90 75 74 69 72 82 75 65 53 26 12 10
10 10 10 10 11 10 10 11 12 11 13 16 18 20 26 32 28 24 24 30 55 89 99 97 92 100 88 77 95 93 86 77 84 73 81 86 75 60 52 42 16 10 9 10 13
11 12 11 11 11 12 13 13 13 13 14 18 20 23 26 32 33 28 27 32 42 60 79 86 91 88 84 80 75 62 62 62 58 55 54 51 44 38 35 15 10 10 15 19 23
14 13 12 12 14 14 14 16 16 19 19 21 21 14 13 15 18 22 24 27 28 27 31 42 59 73 66 53 57 55 47 42 41 38 37 33 22 20 12 10 15 20 26 24 22
19 16 15 14 15 15 17 20 20 12 3 4 17 28 25 21 25 23 20 21 23 23 23 22 26 36 41 46 42 38 29 29 27 25 17 10 10 11 15 21 25 20 20 21 21
24 19 19 19 23 20 18 10 12 19 41 40 47 63 72 66 55 45 44 35 27 22 20 18 15 14 15 17 20 22 19 14 11 11 12 14 14 20 25 25 21 25 28 37 40
30 27 28 31 34 36 39 49 54 59 69 86 95 99 73 59 54 43 35 27 20 17 16 15 14 14 12 11 10 10 10 11 12 15 18 18 26 27 29 36 31 34 48 52 37
39 44 52 49 48 57 87 95 96 100 100 93 83 58 40 27 24 20 17 15 14 14 14 14 13 13 12 12 12 12 13 16 19 23 25 26 28 36 37 38 42 36 33 32 30
70 71 74 94 97 100 100 100 100 98 84 59 38 26 21 19 19 16 16 16 16 16 15 15 14 13 13 13 14 15 19 21 24 28 27 28 34 37 37 25 18 17 17 20 25
98 97 98 100 100 100 92 71 67 55 38 27 22 22 21 19 19 18 18 18 18 16 16 16 16 16 14 14 15 16 18 22 23 25 28 29 29 30 24 21 20 18 20 28 32
100 100 100 100 94 73 61 49 36 28 27 25 25 21 21 22 23 23 21 22 22 20 18 18 18 17 16 16 17 19 20 20 18 17 16 19 20 22 22 21 22 25 31 34 31
100 100 98 80 69 67 51 42 33 32 34 39 34 27 24 23 23 24 26 26 26 27 25 23 23 21 20 19 18 20 17 17 17 17 16 17 20 22 28 33 32 32 39 37 35
100 94 90 84 75 67 60 44 38 33 33 37 27 22 21 22 24 27 30 30 30 34 40 30 26 26 23 23 20 18 17 18 17 18 19 20 21 31 27 31 33 34 32 32 30
84 85 91 83 78 62 65 47 39 32 35 35 21 21 23 29 33 30 29 29 30 30 33 44 56 38 27 24 20 18 19 20 19 19 22 24 23 25 24 24 24 22 21 20 20
97 80 62 73 88 82 60 37 34 37 43 24 27 30 33 36 37 41 46 40 32 24 29 34 33 45 50 28 22 19 20 22 25 26 24 21 21 21 19 19 18 19 22 25 40
92 74 64 86 85 67 40 34 37 41 41 39 39 37 42 38 44 43 50 44 40 24 20 26 32 30 30 37 21 19 18 17 19 24 22 21 20 21 20 18 22 31 37 55 64
92 65 58 67 55 40 36 38 40 42 44 41 45 51 50 53 47 45 47 34 30 25 20 19 23 28 31 34 27 20 17 17 19 20 20 22 23 22 18 24 38 52 63 67 63
80 92 62 55 46 37 37 44 39 39 42 47 51 57 53 62 55 43 36 34 28 23 18 18 18 21 26 26 25 19 16 16 17 17 18 19 19 17 26 43 60 65 65 61 49
77 74 82 65 49 44 45 41 39 38 40 50 57 67 63 68 54 34 29 33 27 28 26 22 19 19 20 22 22 18 16 15 16 16 17 18 23 30 47 59 76 71 58 56 61
71 67 71 58 49 46 43 38 35 42 46 65 69 68 78 78 68 63 62 46 38 34 29 33 32 32 28 23 21 19 18 18 19 23 31 44 44 58 62 67 64 64 62 61 56
86 75 73 69 48 43 40 38 37 41 73 84 73 70 90 91 82 64 55 54 54 54 50 41 35 36 40 37 36 36 33 31 38 48 64 66 55 62 52 61 58 58 46 42 43
81 72 80 68 52 50 48 47 51 67 92 92 84 84 86 79 71 62 54 50 50 52 51 49 46 50 44 39 47 45 34 32 42 45 48 66 55 56 50 53 46 45 48 54 53
87 87 82 62 52 56 58 59 60 80 82 80 79 77 76 76 69 61 55 49 45 47 56 56 54 53 48 46 46 67 48 40 39 48 47 46 43 42 59 63 66 69 54 54 69
94 89 81 62 54 55 57 61 64 69 69 68 66 63 62 62 62 58 54 47 42 43 46 59 61 60 67 48 45 53 48 43 41 43 43 41 48 57 71 62 64 52 53 61 77
100 87 82 74 59 57 54 55 56 56 56 57 60 60 58 54 54 49 42 41 39 38 38 40 52 48 59 57 57 66 56 52 55 53 49 59 75 69 61 75 72 59 61 63 87

GFSSW_250_rhum_015.txt.gz
RH
13 13 12 12 14 17 17 20 25 28 30 26 27 29 39 40 39 36 33 29 39 100 98 94 100 100 100 100 100 100 100 100 100 97 100 100 100 81 87 93 86 100 100 100 100
10 10 10 11 12 13 14 13 17 21 21 18 21 27 36 40 41 38 31 28 25 52 88 94 100 100 100 100 100 100 100 100 100 100 100 100 100 86 85 100 98 88 100 100 100
11 10 11 10 9 10 10 10 11 12 13 14 20 24 29 31 33 38 34 25 21 21 29 61 93 100 100 100 95 100 100 100 100 100 100 100 100 100 90 100 100 100 100 100 100
11 12 10 9 9 8 9 10 10 11 10 11 12 15 20 24 32 44 44 38 32 26 25 25 34 67 99 100 100 100 100 100 100 100 100 100 100 94 100 100 98 100 100 100 100
12 10 10 10 10 9 10 11 10 10 9 8 10 16 19 21 25 33 38 39 36 32 27 24 21 26 46 91 100 100 100 100 100 100 100 100 100 93 100 100 100 96 99 94 68
11 10 10 10 10 10 11 10 10 10 10 9 10 11 13 15 22 22 25 29 32 30 29 27 28 31 32 45 77 97 100 100 100 98 98 94 95 86 92 90 82 66 34 25 16
12 10 10 11 11 12 12 11 11 11 10 10 10 10 9 13 14 15 17 22 27 27 26 26 27 26 27 31 35 38 46 48 51 65 54 62 60 69 58 41 28 20 13 13 16
13 13 12 13 13 13 13 13 12 11 11 12 12 13 13 14 15 20 23 25 28 32 34 35 34 33 34 36 37 37 34 28 29 28 36 33 30 26 28 22 17 14 16 19 17
16 14 15 15 13 14 14 12 11 12 13 16 20 22 21 20 22 29 40 51 53 54 51 46 43 45 44 42 41 36 29 26 23 22 18 14 12 12 14 16 17 22 20 19 16
17 16 15 15 15 14 16 17 17 18 20 22 23 22 46 62 66 69 66 63 64 60 57 54 49 42 34 25 21 16 13 12 12 12 12 11 12 14 14 18 21 21 19 20 26
27 22 17 17 19 23 23 21 16 13 15 46 63 76 82 86 81 71 59 52 41 30 22 17 15 14 14 14 13 13 12 12 12 12 12 14 16 20 21 23 23 22 26 25 22
37 35 31 38 33 28 30 39 46 76 93 99 98 75 52 36 28 22 21 19 17 15 15 15 15 15 15 15 15 14 13 12 13 17 23 29 28 27 26 26 23 25 26 21 19
52 49 45 49 59 60 67 87 98 91 84 69 51 30 24 23 21 20 19 19 18 18 18 17 17 16 16 16 16 15 14 14 15 19 22 25 26 27 33 30 24 22 20 18 19
67 57 61 78 88 92 99 100 98 78 49 36 30 27 24 24 24 24 23 22 20 19 19 18 18 19 18 17 17 16 15 15 15 18 21 24 21 26 22 18 18 19 19 19 21
82 66 80 96 100 100 98 90 66 48 36 31 28 26 25 24 23 23 24 25 26 25 25 25 25 22 19 19 18 18 18 18 18 18 17 20 18 15 19 18 17 18 19 21 22
97 100 100 100 95 99 94 76 49 42 39 32 30 25 22 23 26 32 30 29 28 24 23 24 28 32 37 35 26 21 20 20 19 16 15 16 17 14 21 16 18 19 21 24 26
100 100 100 98 92 70 59 50 44 46 45 45 28 24 24 29 34 39 41 47 43 34 29 29 22 20 20 22 33 41 39 25 21 19 16 17 17 15 20 18 17 20 23 24 23
100 100 93 86 73 64 51 40 38 41 46 34 25 28 32 38 40 46 41 41 36 34 26 22 21 22 20 19 27 29 30 36 40 22 18 18 17 17 16 18 21 22 23 23 22
100 97 92 85 81 67 51 39 34 37 36 26 32 36 38 44 48 49 48 37 35 39 30 29 27 28 24 21 21 22 26 30 28 35 23 19 19 16 18 19 20 20 20 27 41
99 96 91 91 81 73 58 39 36 38 40 40 43 46 51 51 62 58 47 49 51 56 56 51 58 61 55 41 31 26 23 22 23 25 26 24 24 16 18 17 20 26 46 64 72
100 100 96 80 75 74 66 37 38 40 48 47 48 57 63 68 79 79 69 60 57 60 57 59 61 58 53 51 46 39 39 36 34 35 30 31 52 37 31 37 45 54 62 65 62
98 81 60 64 75 83 72 38 40 43 45 43 53 59 72 80 85 85 82 66 58 55 54 50 47 44 42 45 44 44 44 45 47 50 50 45 58 48 44 44 59 59 56 51 44
100 88 63 69 82 77 53 38 38 46 46 45 54 64 65 78 82 80 78 72 64 55 51 48 44 40 37 36 36 37 45 50 52 52 51 50 65 55 62 69 54 48 48 48 43
93 94 61 60 73 60 45 41 43 49 50 53 63 68 71 81 77 76 71 63 60 58 53 46 38 35 34 33 31 30 34 46 53 52 56 61 54 55 49 40 37 39 39 44 46
95 99 93 86 75 62 56 52 50 52 53 64 71 67 78 80 74 73 66 61 58 55 50 47 42 46 51 50 40 31 28 31 38 44 49 44 38 37 38 42 38 46 50 52 53
83 89 80 80 76 76 72 58 56 60 68 71 80 75 71 66 68 65 60 59 56 53 50 51 59 63 63 55 53 43 32 32 35 45 44 36 39 44 44 45 50 54 56 62 70
79 74 69 70 68 70 81 85 72 65 69 66 63 64 65 66 64 57 57 56 55 57 55 60 64 67 72 65 63 43 37 39 43 41 42 40 41 43 45 47 48 52 54 67 81

GFSSW_250_rhum_021.txt.gz
RH
79 61 59 51 46 34 23 20 21 20 24 29 28 28 28 36 51 69 63 56 45 47 46 48 98 100 100 100 100 100 100 100 100 100 100 100 100 100 88 83 96 100 86 68 82
74 60 49 40 26 20 18 16 16 17 20 26 29 29 31 45 59 71 69 69 55 44 49 47 96 100 100 100 100 100 100 100 100 100 99 100 100 100 100 100 100 99 89 100 100
61 53 39 22 16 14 13 12 13 18 23 27 28 31 34 51 56 60 66 68 71 60 60 52 53 85 100 100 100 100 100 100 97 100 95 94 100 100 100 100 100 94 100 98 100
48 39 18 16 14 12 10 11 14 14 17 22 27 33 40 48 60 55 52 53 69 80 68 65 59 75 100 100 100 100 100 100 96 97 100 89 99 100 100 100 99 99 100 100 100
43 20 17 13 12 11 10 12 12 12 15 19 28 32 35 33 35 46 48 51 60 63 69 69 61 96 100 100 100 100 100 100 100 100 100 100 100 100 100 100 100 100 100 100 100
23 18 15 13 13 12 12 11 11 13 15 16 19 24 24 27 33 33 29 30 34 42 58 65 65 68 80 94 100 100 100 100 100 99 100 100 100 100 100 100 100 100 100 100 100
19 17 15 14 14 12 11 10 10 12 13 12 13 17 20 22 18 16 14 16 25 40 55 67 72 71 66 54 58 91 85 94 100 100 100 100 100 100 100 100 100 100 100 100 98
18 15 15 14 12 11 10 10 10 10 10 10 10 10 10 11 12 12 11 22 31 43 53 60 61 55 60 60 59 60 91 76 76 100 99 98 100 76 70 68 84 72 62 69 72
16 16 14 12 11 12 11 10 10 11 11 11 11 12 12 10 7 6 8 11 14 18 22 29 39 48 51 51 49 45 42 37 34 33 30 32 27 28 30 39 47 51 56 46 42
16 15 12 11 12 12 11 12 12 12 12 12 11 10 9 9 8 10 10 11 11 14 21 28 31 31 29 27 29 30 31 33 38 36 38 42 49 50 52 56 47 38 36 22 18
18 13 12 12 13 13 13 13 13 14 14 18 12 19 15 11 12 11 14 13 15 16 17 19 19 19 24 33 49 60 62 55 50 38 38 38 35 30 32 30 25 19 14 16 18
17 14 14 14 15 16 17 15 15 15 16 25 32 17 35 41 38 34 35 31 34 41 46 49 62 58 61 55 57 59 43 28 32 25 20 16 16 14 16 14 15 14 15 17 16
18 16 16 17 19 18 18 30 49 29 43 38 78 45 62 58 47 57 68 75 71 73 71 67 55 52 43 30 22 18 17 15 14 13 14 14 12 15 18 13 16 19 16 14 15
30 30 18 18 21 24 29 41 67 59 61 65 72 61 50 57 67 67 54 64 53 34 22 18 18 16 17 16 16 16 15 15 14 14 14 15 14 14 20 17 15 17 18 17 18
60 50 48 41 49 46 43 45 72 73 92 73 76 74 62 59 42 31 26 19 19 20 21 22 21 20 19 19 19 19 18 18 18 17 16 16 15 16 18 23 24 20 16 17 18
92 94 51 64 62 61 73 78 94 94 66 48 36 29 23 21 21 22 24 25 27 30 30 30 25 25 25 26 25 29 29 29 28 25 23 22 21 19 19 19 21 25 22 20 19
100 72 71 73 74 76 96 91 77 85 36 33 28 26 24 24 25 27 32 35 37 36 28 24 22 24 21 20 20 18 19 23 23 33 34 39 30 22 26 23 18 18 22 20 21
87 80 62 56 79 98 90 64 68 40 33 29 26 24 25 30 36 39 43 40 33 29 25 20 20 25 39 36 33 35 37 38 34 31 29 25 31 33 35 25 20 18 16 18 18
90 74 70 80 90 93 63 49 44 37 40 36 31 26 29 36 42 45 42 35 31 32 34 36 51 55 52 54 56 58 60 57 58 58 58 45 54 62 64 54 44 31 27 31 37
78 88 90 90 96 79 59 51 55 51 49 38 28 26 32 44 45 51 52 45 56 57 57 62 59 54 48 45 42 42 43 45 49 49 50 45 47 50 56 55 65 62 69 61 53
79 96 98 92 90 78 65 66 55 48 49 38 29 36 41 47 52 58 58 63 65 66 64 57 52 50 48 43 39 37 38 43 42 44 45 53 41 33 31 36 40 44 50 57 56
94 99 100 96 72 64 62 54 43 46 51 34 39 49 54 59 65 71 75 69 64 59 55 53 52 53 48 41 37 43 46 43 43 40 42 45 60 43 35 32 29 27 32 44 50
98 100 100 90 79 67 54 45 40 43 56 45 46 54 60 64 74 82 79 76 74 68 63 62 60 55 48 41 35 32 48 58 67 78 68 49 51 44 60 68 46 55 60 64 62
94 100 100 91 88 86 79 55 39 45 53 55 51 53 56 63 70 80 86 87 84 75 67 62 58 54 53 60 62 57 55 57 53 53 59 63 56 58 51 45 50 47 45 44 43
100 100 100 100 99 95 87 75 53 41 47 47 45 44 56 70 76 79 87 83 82 76 69 62 54 49 53 55 56 56 53 52 51 51 47 48 43 44 55 47 38 45 46 43 41
100 100 95 99 89 85 83 83 78 53 44 42 42 40 55 90 76 79 79 85 80 71 64 60 60 62 60 59 59 64 62 60 63 61 59 54 60 50 49 44 46 44 44 45 50
100 100 100 99 95 75 73 81 80 73 44 39 45 50 62 45 59 71 70 73 62 64 58 53 57 66 67 64 65 66 73 66 60 58 64 55 59 62 55 46 48 50 47 48 45

GFSSW_250_rhum_024.txt.gz
RH
20 23 29 44 52 42 44 41 33 28 24 25 26 21 22 26 30 33 36 45 52 55 58 69 96 100 100 79 76 100 100 100 100 100 100 100 100 100 100 100 100 100 96 100 100
33 54 55 58 53 46 40 38 27 22 23 20 20 21 26 32 38 44 41 63 74 76 67 79 75 100 100 100 100 100 100 100 100 100 100 100 100 100 100 96 94 92 100 100 100
76 69 60 60 49 47 37 27 18 17 17 19 18 22 31 41 40 54 66 85 96 90 83 80 77 90 100 100 100 100 100 100 100 100 100 100 97 99 100 100 100 98 98 93 100
92 77 67 65 49 30 20 15 14 12 14 16 17 24 37 44 48 66 71 89 99 89 89 88 80 76 100 100 100 100 100 100 100 100 100 100 100 100 100 100 99 100 95 99 100
83 69 64 42 22 16 14 12 11 11 12 16 22 26 34 39 45 69 66 77 92 91 87 89 80 72 83 91 91 100 100 100 100 100 100 100 100 100 100 100 100 100 98 96 100
69 63 46 20 16 13 12 11 10 11 14 14 19 27 36 38 46 61 63 68 82 86 93 91 94 88 97 98 92 100 100 100 100 100 100 100 100 100 100 100 100 100 100 100 100
62 50 22 16 14 14 13 12 13 12 12 14 16 27 34 37 38 35 46 59 64 78 80 84 100 98 89 91 90 100 100 100 100 100 100 100 100 100 100 100 100 100 98 97 100
56 31 16 16 16 14 13 12 12 12 13 15 17 22 31 36 33 25 31 44 50 38 38 44 58 80 84 80 73 78 98 100 100 100 100 100 100 100 100 100 100 100 100 100 100
27 17 16 17 15 14 12 11 10 12 13 14 13 15 18 20 22 24 24 18 14 14 16 20 36 51 61 69 75 72 70 86 99 95 75 74 87 96 96 85 71 86 90 66 49
18 17 16 15 13 13 13 12 11 11 10 10 11 11 13 14 13 12 11 11 14 23 31 37 42 50 60 67 58 46 49 56 57 55 52 50 52 56 52 38 32 36 41 47 53
18 16 14 12 15 14 12 12 11 12 12 12 12 12 13 12 10 10 6 7 8 9 11 12 16 20 27 28 31 30 32 33 32 32 32 32 36 41 36 40 38 37 36 36 36
18 16 13 14 14 14 14 14 13 12 11 12 11 12 12 11 12 9 14 12 13 14 12 15 15 24 21 21 23 29 33 41 50 54 49 44 38 36 33 28 24 20 20 19 21
20 15 15 14 14 14 14 14 15 18 16 14 16 22 17 20 32 33 36 34 34 38 35 34 43 49 50 55 60 60 57 50 47 36 31 25 22 17 16 15 21 24 20 18 16
22 16 15 14 15 15 15 18 25 54 31 32 51 51 63 47 47 60 51 57 62 65 55 54 51 41 45 31 28 26 22 19 18 15 16 19 15 16 16 15 14 16 17 18 17
19 19 20 29 23 18 39 52 52 68 56 48 55 69 69 56 56 60 53 67 46 42 29 23 21 19 18 18 18 17 18 18 18 19 18 17 17 16 16 17 20 18 18 19 20
34 52 67 68 48 49 56 56 75 92 72 60 62 50 52 64 46 40 29 22 23 22 22 20 21 21 21 26 29 29 26 26 24 24 22 20 22 24 24 25 32 43 41 31 27
87 85 97 91 56 72 74 65 73 86 66 64 62 66 54 40 27 24 27 27 25 27 25 27 26 26 28 24 21 20 20 22 23 23 25 29 27 32 31 30 31 30 32 32 35
100 94 87 76 70 71 80 72 81 84 60 40 36 26 23 26 28 29 31 34 40 34 25 24 24 22 26 40 49 58 56 59 55 53 56 57 52 46 42 38 35 44 57 58 66
100 100 80 90 87 78 95 86 82 50 36 34 26 27 27 31 32 36 40 36 31 28 24 44 62 64 64 58 52 45 46 46 46 42 43 44 46 50 49 39 37 40 41 42 43
100 96 96 86 83 99 89 83 60 39 30 27 27 27 29 37 42 46 47 38 35 44 64 72 64 53 48 48 49 46 44 48 50 46 39 40 37 40 41 36 37 33 33 31 28
100 88 83 80 100 95 69 58 42 36 31 31 28 29 36 46 46 49 48 48 62 70 70 58 54 53 52 50 45 43 42 45 52 53 49 34 33 32 33 34 40 43 45 44 40
90 90 71 96 98 68 53 44 41 42 43 35 29 32 38 42 50 62 59 67 74 78 68 58 58 60 59 52 46 43 50 54 43 37 50 53 51 52 50 48 43 42 42 39 39
98 87 98 94 96 68 64 55 51 45 45 38 32 38 45 55 62 64 68 71 70 64 61 62 65 63 59 53 49 53 54 51 56 63 59 59 55 52 48 53 54 51 49 45 44
86 98 97 94 90 73 66 58 44 40 47 36 39 51 60 61 62 72 80 82 85 83 80 73 70 64 56 49 42 48 56 60 64 63 61 53 60 58 60 62 65 67 64 62 58
95 100 96 100 91 79 64 51 40 38 46 53 50 50 58 66 76 75 81 82 86 84 78 74 70 60 53 56 62 67 65 59 52 46 40 39 43 49 58 64 61 59 58 54 46
99 95 92 88 77 75 70 54 41 39 41 46 50 57 66 66 41 44 66 79 82 79 71 62 60 52 49 53 62 66 71 59 53 50 45 46 59 57 54 50 48 50 48 43 38
91 94 97 95 91 100 95 79 70 52 44 51 64 55 44 34 38 75 63 60 67 65 66 62 59 53 55 58 72 88 70 54 54 61 62 74 62 51 58 61 58 54 50 46 46

GFSSW_250_rhum_027.txt.gz
RH
20 15 16 17 22 22 32 35 30 35 29 25 21 22 29 25 26 26 22 23 25 32 41 50 52 46 48 54 52 100 100 100 72 90 100 100 100 100 100 100 100 100 100 100 100
21 16 24 36 45 59 54 44 36 34 28 26 22 26 26 29 32 33 36 33 34 40 53 56 52 54 52 68 72 88 99 100 100 98 100 100 100 100 100 100 100 98 99 99 94
20 20 37 70 62 64 66 56 51 38 31 27 27 24 26 32 36 41 44 44 47 54 62 57 62 65 83 94 93 89 98 100 100 100 100 100 100 100 100 100 100 100 96 100 100
19 27 45 72 67 64 59 49 43 33 29 30 28 25 27 31 43 44 50 52 49 66 73 70 88 74 79 81 76 84 100 100 100 100 100 100 100 100 100 100 100 100 100 100 100
18 51 74 81 64 59 47 32 25 20 18 18 19 21 25 29 44 49 48 48 59 65 84 94 100 100 100 100 100 100 100 100 100 100 100 99 100 100 100 100 100 100 100 100 100
24 77 73 73 62 53 29 18 15 13 13 14 15 18 26 32 40 45 50 64 74 94 99 100 100 100 100 100 100 100 100 100 100 100 100 100 100 100 100 100 100 100 100 100 100
44 88 82 69 50 26 17 15 13 12 12 13 14 16 20 27 38 46 58 82 98 100 100 100 95 96 100 100 100 93 100 100 100 100 100 100 100 100 100 100 100 100 100 100 100
71 78 72 49 22 16 16 15 14 14 13 14 16 23 26 30 43 53 70 96 97 88 86 86 90 92 88 94 90 94 100 100 100 100 100 100 100 100 100 100 100 99 100 100 100
73 68 52 23 16 16 17 15 14 13 13 13 14 18 30 38 48 57 59 75 74 83 84 87 77 70 71 76 79 88 90 91 93 95 87 91 100 100 100 100 100 100 100 92 82
66 54 25 16 17 18 16 14 12 13 13 15 17 22 34 36 36 36 34 31 33 49 49 38 42 37 34 41 58 73 75 76 77 75 75 75 92 98 96 94 92 93 67 52 48
72 35 17 18 17 15 15 13 13 14 13 14 14 15 20 30 32 35 30 23 29 25 22 16 15 20 23 31 42 57 71 77 73 56 50 54 53 50 54 52 48 46 41 41 40
64 24 19 18 15 16 16 14 12 11 11 12 12 15 17 18 19 20 18 17 13 9 11 17 22 24 26 28 29 27 28 31 29 28 28 29 32 38 40 44 41 38 34 31 27
42 21 22 15 19 16 14 12 11 12 13 13 12 12 15 15 17 13 7 8 10 9 9 11 12 16 19 23 24 24 25 27 32 41 50 55 50 35 31 29 23 19 16 14 18
26 25 18 15 15 13 14 13 14 13 14 13 15 15 16 15 19 35 18 13 18 21 44 37 29 40 52 50 52 54 48 48 49 45 37 28 20 16 18 18 17 16 16 16 17
24 22 15 16 15 16 16 15 16 16 17 20 23 29 17 29 49 41 47 50 53 52 51 55 56 50 40 40 31 23 24 21 18 17 15 16 17 18 19 19 19 21 21 20 19
28 19 20 18 18 20 25 43 61 47 60 62 54 44 44 62 45 54 54 58 57 44 40 35 29 28 24 21 19 18 18 19 19 20 19 19 20 26 26 30 31 30 30 30 29
24 26 22 26 28 36 66 40 49 65 78 86 69 53 46 53 50 51 47 42 31 28 23 22 21 23 25 27 24 22 20 18 21 29 30 33 32 36 47 49 51 57 58 58 59
30 39 55 50 79 65 61 51 64 62 73 70 51 53 54 46 34 29 26 24 26 24 27 25 24 26 26 23 20 22 36 49 52 49 44 44 43 40 38 39 41 38 38 38 38
62 81 77 84 66 66 61 68 71 69 63 63 61 52 40 27 26 27 27 29 31 34 31 25 25 29 39 50 61 58 45 40 39 41 44 44 42 38 36 36 38 40 48 54 56
80 87 97 100 68 86 76 64 68 66 60 56 44 32 30 28 30 35 36 35 27 27 30 44 62 68 60 50 45 43 42 41 42 52 56 53 51 48 46 44 42 40 40 38 38
89 84 100 86 94 88 79 74 72 64 36 33 37 31 29 38 39 40 39 31 34 50 67 70 61 51 50 50 48 46 45 48 56 53 47 47 40 38 39 40 39 38 39 40 42
97 100 97 94 95 87 90 84 64 38 35 33 28 30 33 38 38 47 51 47 60 70 71 63 55 55 56 58 56 54 55 58 55 54 54 44 42 44 40 38 38 38 39 40 46
100 100 86 100 82 97 87 86 48 38 32 31 28 28 33 43 44 49 59 59 65 68 69 60 56 59 65 64 61 56 55 57 60 60 51 46 45 44 42 42 42 42 44 45 45
98 97 83 79 94 95 78 66 44 44 41 36 30 29 37 43 48 63 67 65 74 71 65 62 64 72 73 68 59 54 62 67 64 56 54 52 51 47 47 43 42 44 51 56 56
100 89 82 90 100 84 64 56 56 50 50 42 32 35 44 52 52 57 59 68 78 81 80 84 86 82 75 65 51 52 60 62 60 62 61 53 51 45 50 56 58 57 56 60 66
100 93 71 100 90 76 70 65 57 45 51 44 39 49 48 46 46 52 56 71 79 81 85 91 88 77 64 58 50 52 55 59 67 65 54 49 48 56 59 64 63 63 62 65 66
100 87 98 99 96 82 72 68 52 44 53 62 58 54 46 48 57 54 68 80 75 69 68 66 73 71 65 52 60 78 72 70 67 59 50 46 50 55 66 68 73 72 70 70 70

GFSSW_250_rhum_030.txt.gz
RH
25 25 26 23 20 16 18 33 28 28 36 40 33 30 38 37 41 32 26 25 23 22 22 22 23 21 26 27 31 36 35 46 57 58 68 60 54 83 87 100 100 100 100 100 100
26 29 28 26 19 17 24 60 60 51 31 40 37 36 33 36 39 28 27 23 22 26 28 27 27 33 39 39 48 54 46 52 76 74 100 94 62 100 100 100 100 100 100 100 100
28 30 28 23 18 20 45 75 72 66 73 58 61 51 42 38 34 31 36 32 34 38 37 41 46 47 52 55 68 76 63 73 93 100 98 100 100 94 100 100 100 100 99 100 100
26 31 28 24 19 20 56 84 76 75 73 76 61 52 46 40 36 41 43 42 51 48 44 51 60 68 59 56 65 82 84 95 100 100 100 100 100 100 100 100 100 100 100 100 99
27 31 29 22 20 43 70 85 74 70 50 47 45 42 43 45 47 48 48 56 56 48 53 64 77 78 82 89 93 100 100 99 100 100 100 100 98 100 100 100 100 100 100 100 86
31 36 28 21 25 57 80 86 65 47 28 22 23 26 32 40 41 40 52 56 60 63 66 94 98 99 100 100 100 100 97 99 100 100 100 100 100 100 100 100 100 100 100 100 100
34 37 26 19 37 59 72 50 35 20 17 16 16 16 19 24 29 36 54 62 64 70 94 99 100 100 100 100 100 100 100 98 100 100 100 100 100 100 100 100 100 100 100 100 100
33 35 24 21 53 60 56 29 18 16 15 14 14 14 15 18 24 36 56 63 72 88 92 100 100 100 99 98 92 98 100 100 100 100 100 100 100 100 100 100 100 100 94 93 100
37 34 21 27 55 45 34 19 17 16 14 14 13 14 14 19 28 38 58 72 75 90 95 96 99 100 95 96 98 94 96 100 100 100 100 100 100 100 100 100 100 100 98 98 92
40 33 22 47 46 25 19 18 16 14 15 15 15 16 19 20 27 32 44 57 74 95 86 95 99 100 100 100 98 95 95 98 100 99 100 100 100 100 100 100 100 95 86 90 93
39 30 28 50 33 19 18 17 14 14 15 16 16 19 23 25 29 39 50 63 83 91 93 85 77 86 85 82 80 83 85 85 80 81 83 82 81 89 82 77 72 63 58 63 62
34 21 46 47 22 20 17 16 14 15 15 15 16 20 34 42 51 51 50 44 40 35 42 54 49 49 42 42 31 26 28 44 57 68 74 72 69 56 47 40 39 42 43 42 41
31 24 64 41 20 16 17 18 15 15 15 16 15 20 35 42 44 45 59 54 50 33 24 23 18 17 16 19 24 34 37 35 29 26 27 25 25 32 45 54 46 36 31 25 21
28 42 64 27 17 17 18 15 14 14 13 15 15 15 17 22 29 32 26 21 19 18 14 8 12 16 19 17 17 17 22 32 42 50 48 44 37 30 31 28 24 18 15 15 16
36 61 49 22 17 19 16 15 14 13 13 13 13 15 17 20 20 18 14 12 11 11 10 12 28 43 41 38 41 43 47 53 51 41 24 18 18 18 17 17 17 18 19 18 18
48 65 36 20 20 16 16 16 16 17 18 18 23 30 24 30 37 30 31 36 48 58 52 52 50 45 48 48 43 38 29 23 20 18 20 21 21 20 22 23 23 24 28 39 44
67 70 29 18 17 17 19 18 18 24 25 26 53 58 29 36 30 35 52 54 58 52 56 50 49 39 34 31 24 21 21 24 24 20 23 29 31 32 40 43 41 39 37 35 35
84 61 27 17 19 21 22 36 30 41 39 67 57 65 67 48 52 58 50 50 49 42 37 31 24 23 21 22 24 25 21 26 38 42 40 37 36 35 35 35 38 43 48 48 46
97 37 24 21 24 30 55 80 76 77 75 81 89 73 56 52 50 39 34 37 29 25 25 26 30 30 25 23 22 34 51 47 38 34 31 38 43 50 52 53 52 48 45 44 45
90 33 23 37 43 67 100 68 72 63 66 65 57 55 52 44 33 27 26 27 29 32 32 30 25 23 28 43 50 46 41 38 39 41 47 52 53 50 50 47 43 40 37 37 38
58 42 47 46 81 100 71 65 61 53 60 60 58 54 43 29 27 28 32 37 41 31 26 26 35 49 57 48 44 41 41 44 46 53 56 55 53 51 48 42 37 36 37 36 36
48 56 79 88 74 65 63 76 59 62 62 57 54 37 30 27 30 35 40 38 32 30 34 56 64 55 50 49 49 50 53 52 54 55 53 55 52 49 42 36 35 39 43 42 45
66 72 96 100 72 68 79 70 74 71 48 38 35 32 31 40 44 42 41 36 35 49 63 60 56 55 56 59 59 63 62 59 55 55 55 54 54 47 38 38 43 49 48 46 46
64 88 100 80 68 81 81 79 85 52 37 40 35 33 43 44 42 42 50 46 45 53 60 66 59 55 57 67 72 72 64 59 60 60 56 52 53 48 45 43 45 44 48 60 58
76 91 100 65 73 84 87 89 78 41 44 43 32 33 36 36 39 40 45 49 50 66 70 64 64 73 81 83 81 73 65 57 61 58 60 58 57 50 42 44 48 51 47 61 65
86 100 100 85 86 82 92 99 69 52 49 46 34 28 29 35 46 50 62 69 73 74 75 88 94 94 94 88 85 82 73 66 63 65 70 63 52 51 49 51 65 51 55 72 76
98 100 100 83 78 82 95 83 63 57 57 57 39 30 28 37 48 55 65 75 84 93 93 93 96 90 88 76 71 96 62 67 67 74 64 56 54 61 50 77 95 75 75 78 80

GFSSW_250_rhum_033.txt.gz
RH
36 29 28 27 19 22 20 21 21 19 29 39 32 24 36 35 29 31 31 42 40 40 38 30 25 22 21 19 16 16 17 16 21 27 28 26 41 50 48 62 66 82 90 100 100
41 29 33 28 24 22 25 22 20 22 38 63 71 52 36 41 43 53 55 57 59 52 46 42 37 32 30 28 27 30 30 34 33 39 54 52 59 65 62 63 80 99 98 100 100
36 37 42 29 28 26 27 23 21 30 51 72 88 82 65 54 47 61 56 66 70 60 55 52 50 48 48 47 51 50 51 62 56 72 71 67 83 77 74 66 85 98 100 100 100
48 39 46 34 30 26 26 26 22 62 73 66 90 91 86 65 62 51 50 66 68 65 64 68 80 75 76 70 71 62 84 86 75 78 86 75 71 87 89 86 99 100 100 100 100
58 42 45 39 33 28 25 25 33 66 66 66 66 66 65 49 45 45 58 63 68 68 86 95 91 79 79 73 93 100 100 96 96 100 100 100 100 100 100 100 100 100 100 100 100
68 47 47 36 35 28 27 26 48 67 60 52 41 32 34 36 45 50 57 67 74 73 80 88 78 89 100 100 100 100 96 99 95 100 100 100 100 100 100 100 96 100 100 100 100
71 47 50 40 38 29 25 28 53 56 38 31 20 18 18 20 30 48 56 64 73 75 78 93 99 100 100 100 100 100 100 100 100 100 100 98 100 100 100 100 99 89 100 100 100
42 49 58 38 40 31 26 31 44 36 21 18 16 15 15 17 21 43 52 54 70 78 84 92 91 99 100 100 100 96 100 100 100 100 100 100 100 100 100 100 100 100 100 100 100
47 70 58 39 43 30 26 34 28 18 17 17 16 15 14 17 18 30 40 43 71 83 91 97 97 100 100 100 100 100 100 100 100 100 100 100 100 100 100 100 100 100 100 96 92
40 54 60 41 43 32 29 35 20 17 18 17 16 15 15 16 17 21 29 48 70 72 82 99 100 100 100 100 97 100 100 94 92 93 96 100 100 100 100 100 100 100 100 100 98
36 67 44 47 42 27 37 27 19 19 16 16 16 15 16 16 19 24 33 60 62 75 93 100 100 100 100 100 99 100 100 100 94 92 94 84 81 83 88 92 91 93 90 92 83
37 62 40 51 41 27 33 23 19 17 15 15 16 16 20 20 23 35 49 66 74 88 100 100 100 100 100 94 93 93 92 93 99 95 93 91 88 90 80 79 77 74 69 64 56
46 68 40 52 28 34 30 22 18 17 15 15 16 18 23 25 30 47 64 72 80 94 99 98 96 99 98 92 80 71 58 44 34 31 42 53 68 71 60 47 42 39 40 46 45
60 58 53 44 24 40 30 18 19 17 16 15 17 21 34 39 48 66 74 76 69 56 51 45 52 50 36 30 23 18 19 23 28 34 38 38 36 31 35 40 47 43 31 19 16
57 56 55 29 28 38 24 18 20 17 16 17 16 21 39 45 50 54 47 48 52 45 35 28 22 18 14 16 21 23 24 23 30 47 48 45 42 45 35 22 18 18 19 22 26
52 55 53 26 44 29 20 20 17 15 16 16 17 17 20 29 39 38 33 28 23 21 19 17 13 12 15 19 21 22 29 43 47 37 37 31 19 18 19 20 22 26 37 48 48
56 61 41 34 38 26 20 18 16 15 17 18 18 21 20 20 22 26 28 29 23 18 24 39 35 38 38 40 50 50 47 34 26 20 20 19 23 32 40 42 43 43 42 43 44
49 56 40 78 52 22 21 17 16 18 23 24 32 28 33 40 63 52 62 55 43 50 49 49 51 52 45 32 26 22 19 20 21 22 31 49 48 45 43 44 45 46 48 48 43
64 43 57 88 52 25 18 19 19 25 34 53 61 88 39 55 73 71 72 53 53 54 51 47 41 31 23 23 26 27 26 25 39 50 50 44 43 46 49 52 51 48 43 39 35
61 37 89 90 38 21 22 32 29 45 74 71 53 56 70 71 66 57 56 51 46 35 27 24 23 25 29 33 28 26 41 47 43 43 42 43 45 48 51 50 47 43 39 37 37
50 46 100 91 28 24 48 66 60 76 82 76 72 84 68 54 53 48 44 30 27 25 27 33 30 27 28 29 48 48 44 44 46 46 48 49 51 51 54 50 46 40 40 39 41
48 81 98 82 32 56 76 81 78 84 85 78 69 55 52 54 42 29 26 29 34 35 33 28 26 39 55 50 47 48 52 53 54 54 57 57 55 60 56 52 47 47 42 44 51
56 98 98 63 67 75 84 90 73 89 82 67 55 54 51 39 26 30 40 48 49 36 30 36 55 59 50 50 55 58 61 64 62 59 58 58 62 58 65 60 56 46 44 49 49
56 80 84 70 70 82 95 82 87 81 68 63 56 56 34 27 34 42 47 52 42 38 47 65 61 56 54 54 58 70 75 72 68 61 55 51 57 56 71 59 56 46 39 36 46
56 81 92 81 79 96 75 74 95 76 63 52 47 34 29 33 41 49 54 51 44 52 72 71 68 62 59 69 78 86 88 80 76 70 66 58 63 59 67 60 67 53 48 45 59
83 82 100 100 100 95 77 80 77 87 68 39 38 32 32 40 48 52 53 59 59 70 83 83 74 69 80 90 96 99 90 82 88 78 73 69 74 65 71 80 55 56 42 58 69
94 96 99 92 100 81 90 80 80 88 51 44 36 32 38 43 46 56 62 77 80 86 86 79 77 89 93 100 100 100 80 91 73 75 71 74 67 75 84 76 82 62 57 75 76

GFSSW_250_rhum_036.txt.gz
RH
43 41 46 36 39 35 32 31 24 26 24 27 23 28 45 51 40 45 38 32 28 35 37 33 34 26 21 21 20 15 17 12 14 13 13 14 19 22 28 32 44 48 53 55 66
56 47 45 42 38 38 31 28 29 27 25 28 25 40 53 66 69 58 52 52 56 61 67 63 58 47 41 37 36 32 29 22 33 32 27 27 31 30 28 36 48 51 60 80 100
41 47 52 62 56 53 41 40 47 31 29 28 32 51 61 82 67 75 52 75 81 84 82 76 60 60 61 61 52 43 28 39 52 59 60 41 44 40 49 59 62 68 78 73 100
49 53 70 61 73 86 57 56 42 34 31 29 34 61 61 70 78 73 68 55 73 85 90 89 89 83 81 79 70 76 83 88 91 73 74 73 70 63 72 83 74 81 90 84 95
72 61 80 77 68 82 74 48 45 34 31 27 38 50 44 42 57 59 74 65 68 80 90 98 95 99 100 94 98 86 100 100 100 77 95 97 97 100 97 83 95 92 88 100 95
61 74 63 86 66 60 58 40 40 34 31 28 44 34 26 25 32 40 50 56 62 70 91 97 100 100 100 98 100 100 100 100 100 100 100 100 96 100 100 100 100 100 100 100 99
90 80 93 90 76 58 53 39 42 31 30 31 26 16 17 17 20 24 38 54 60 68 83 98 100 100 100 100 100 100 100 100 93 100 100 100 100 100 100 100 100 100 100 100 100
94 96 61 54 61 52 48 40 38 31 34 30 18 16 16 17 16 19 30 50 59 74 83 98 100 100 100 100 100 100 100 94 89 97 100 100 100 100 100 100 100 97 91 75 76
100 100 98 79 56 46 43 40 36 32 35 26 18 18 17 16 17 20 32 59 71 76 100 100 100 96 100 100 100 100 100 97 95 100 100 100 100 91 94 100 100 100 100 100 100
96 100 86 100 70 54 43 38 31 34 37 20 17 18 16 15 17 19 43 61 69 97 100 96 98 100 100 100 100 100 100 100 100 100 100 100 100 100 100 100 100 100 100 99 95
100 100 100 99 98 58 44 38 30 36 26 18 16 18 16 16 17 19 51 54 73 99 92 97 100 100 100 100 100 100 100 100 100 100 100 100 100 100 100 100 100 100 99 100 94
100 98 100 100 84 64 49 36 29 37 19 17 16 18 16 16 16 19 37 45 85 95 86 100 100 100 100 100 99 100 100 100 100 100 100 100 100 100 98 92 87 89 88 77 69
100 100 100 97 100 65 56 36 29 32 17 16 17 17 18 19 19 21 27 45 88 88 100 100 100 100 100 100 100 100 100 100 98 98 95 90 86 82 78 79 76 74 77 68 48
100 83 98 90 100 66 53 32 32 23 18 18 17 18 20 23 26 34 48 85 90 95 100 100 100 100 100 100 100 100 100 97 95 87 65 51 39 47 58 62 57 41 37 40 34
100 98 91 82 79 58 47 31 33 17 20 19 17 18 24 27 40 73 93 95 100 100 100 97 100 97 100 97 92 84 59 38 25 24 23 31 40 39 36 39 39 34 20 18 19
100 100 100 93 46 70 44 32 31 18 18 16 18 19 32 36 40 58 83 83 91 93 81 68 53 50 38 30 23 22 20 22 24 26 27 31 36 44 34 20 19 20 26 35 34
100 100 100 55 47 60 37 35 22 20 16 15 15 17 28 46 54 62 64 62 64 69 61 45 29 22 18 16 20 23 27 52 59 47 44 38 21 20 32 40 38 36 38 41 45
78 92 100 44 57 46 34 36 20 18 16 16 16 18 19 29 45 47 53 40 30 25 21 18 14 12 22 37 53 57 50 43 36 27 22 21 31 45 40 38 41 45 49 51 47
98 76 100 45 63 45 41 24 23 17 16 24 24 22 20 22 27 28 24 22 32 28 24 23 30 39 48 42 37 32 27 22 22 21 27 43 40 44 47 48 53 52 50 46 41
98 73 57 52 63 36 51 25 27 19 27 48 41 39 29 33 54 40 42 63 50 46 48 52 50 43 36 30 23 20 23 24 27 42 43 40 51 58 60 60 57 53 50 44 42
63 44 39 71 55 44 57 28 32 28 53 57 40 60 41 37 45 37 56 53 54 53 47 34 27 23 23 22 25 25 28 48 45 41 45 52 60 59 60 60 60 57 54 49 47
36 35 41 64 50 72 38 43 35 52 79 62 75 63 74 63 54 55 56 48 39 28 25 26 30 32 32 29 30 56 52 45 48 54 58 60 60 60 60 62 62 62 62 53 46
23 32 60 65 64 77 49 74 55 80 90 92 81 81 79 55 51 45 30 26 26 29 37 35 30 27 33 53 60 48 48 56 61 64 69 68 66 58 62 62 58 68 62 58 58
22 38 47 61 76 56 82 93 92 94 99 91 90 83 53 51 41 29 28 33 41 45 38 30 36 58 62 58 60 64 67 70 72 73 72 67 66 55 60 62 63 79 69 67 54
25 41 46 71 82 55 93 92 92 99 98 94 93 57 52 47 31 31 40 52 56 46 39 55 79 64 59 65 68 77 82 81 81 80 78 73 77 41 66 70 75 84 76 68 49
31 40 52 81 87 72 91 91 79 97 100 89 71 57 60 40 31 39 50 54 54 50 69 83 76 65 66 70 76 88 91 80 90 87 84 79 96 63 60 72 76 79 79 72 68
42 57 83 83 64 75 100 96 93 99 98 76 64 59 45 34 34 48 56 64 70 83 94 98 92 80 75 72 90 98 78 83 77 72 68 70 79 81 83 73 78 86 94 97 84

GFSSW_250_rhum_039.txt.gz
RH
32 39 38 32 29 45 41 33 36 71 47 31 28 24 27 30 47 54 69 79 52 21 23 22 20 18 18 15 17 16 18 17 16 14 13 18 13 13 15 13 11 12 14 18 32
41 46 45 37 28 33 65 55 59 57 38 30 27 27 28 33 56 59 87 89 74 77 59 42 27 32 36 36 34 33 22 18 22 36 89 81 79 20 17 16 20 19 22 26 25
50 47 45 41 33 37 56 75 54 46 40 40 29 31 29 34 56 67 84 87 79 99 78 71 57 54 54 48 48 46 48 32 58 35 100 98 68 38 38 44 42 33 36 44 44
52 52 47 38 38 37 61 66 58 52 59 38 36 34 29 34 42 52 64 92 75 95 94 85 79 74 71 64 63 68 84 87 75 77 66 95 55 81 79 93 60 78 56 63 65
59 57 50 37 38 38 54 88 63 60 75 48 36 34 29 28 19 22 33 45 68 68 83 92 75 90 100 99 100 100 100 100 99 94 87 80 84 89 94 97 90 90 90 83 69
69 63 54 40 46 37 74 81 76 78 83 63 42 29 28 25 18 17 21 35 52 60 75 94 96 98 100 100 100 100 100 100 97 100 89 95 98 100 100 99 95 96 93 96 96
75 70 51 44 42 45 82 100 98 87 71 71 34 32 32 22 18 16 18 27 50 73 84 88 95 100 100 100 100 100 100 100 99 100 100 98 100 100 94 97 100 100 100 100 100
74 62 46 50 52 52 94 97 93 94 81 57 36 32 31 21 19 19 17 26 46 66 75 86 93 100 100 100 100 100 100 100 83 87 93 100 100 100 100 100 100 100 100 100 100
77 62 48 46 53 55 77 78 83 82 74 57 34 31 23 20 19 20 18 26 53 66 84 94 96 100 100 100 100 100 100 92 91 100 97 100 100 100 97 100 100 100 100 100 97
71 61 44 54 48 74 85 83 95 78 62 45 32 31 18 18 19 21 19 32 64 74 88 87 100 100 100 100 100 100 91 97 91 100 100 100 100 100 99 98 100 100 90 100 100
48 44 51 63 55 52 90 100 91 89 50 33 30 28 18 18 19 21 20 43 70 87 92 100 100 100 100 100 100 100 83 89 96 100 97 96 93 100 100 100 100 100 100 100 100
40 46 55 53 66 70 76 62 89 84 52 34 29 26 17 18 18 20 21 57 75 87 100 100 100 100 100 100 100 100 98 100 100 100 100 100 100 100 100 100 100 100 100 100 100
49 49 54 62 60 73 96 99 86 92 63 37 31 22 16 17 20 19 26 61 70 99 100 100 99 100 100 100 100 91 100 100 100 100 100 100 100 100 100 100 100 100 88 75 77
59 64 67 77 72 81 100 100 96 100 52 38 33 19 16 19 21 19 30 56 63 98 100 92 98 100 100 100 100 100 100 100 100 100 100 100 100 90 74 72 77 82 72 73 70
69 72 82 83 92 82 94 92 96 84 52 32 30 18 17 20 23 22 29 43 65 93 100 100 96 100 100 100 100 100 100 100 91 98 96 78 81 78 71 36 39 51 46 36 37
74 79 95 95 86 70 76 100 97 73 72 38 25 17 17 23 27 30 35 45 99 100 91 98 100 100 100 100 94 90 90 89 92 87 80 64 40 28 35 43 39 36 30 21 20
81 82 86 78 84 73 97 100 100 78 43 38 20 16 18 28 34 38 61 98 97 100 100 100 99 95 92 96 99 96 81 59 46 25 20 28 34 44 38 31 24 26 34 37 32
75 67 82 86 97 99 100 100 78 88 46 34 17 15 16 30 40 48 59 84 97 95 91 95 91 82 69 64 50 37 25 25 22 30 41 49 42 34 26 30 33 33 33 33 33
90 78 88 100 97 92 94 72 99 98 42 24 17 16 18 28 48 58 68 66 71 75 69 67 62 45 34 37 30 32 46 55 53 44 35 26 25 33 41 35 37 40 40 42 46
84 87 98 80 92 99 85 100 97 77 38 21 19 16 16 22 36 56 61 60 62 55 31 23 24 38 43 50 50 45 44 43 36 25 27 46 53 45 37 44 48 51 55 55 54
87 90 95 97 100 93 98 100 100 58 32 22 22 20 30 29 24 24 33 36 30 23 24 34 55 60 52 49 41 28 28 28 28 33 61 56 48 42 45 53 58 61 66 67 65
100 100 100 100 100 100 100 100 100 53 30 35 44 54 91 84 46 39 39 71 53 48 53 48 41 37 30 27 24 25 30 29 45 66 60 55 55 53 59 60 62 63 65 66 66
100 100 100 90 82 100 96 97 70 54 41 44 82 95 90 92 63 75 63 74 68 46 40 34 29 27 31 31 34 34 34 58 64 57 54 54 56 64 65 64 65 60 61 58 58
88 85 78 79 98 95 67 70 71 47 72 74 98 98 95 76 81 72 63 51 43 37 29 31 36 46 40 33 40 56 67 60 62 62 59 65 61 68 69 68 66 64 64 61 60
46 37 28 57 47 45 44 84 72 50 98 100 100 100 96 100 79 52 43 37 32 30 41 44 33 31 32 52 72 63 57 59 65 66 75 69 77 63 73 78 90 94 82 70 70
18 20 30 40 37 36 53 79 58 81 98 100 99 100 100 96 52 46 32 28 32 43 49 39 35 42 70 70 61 59 71 72 70 75 81 78 88 59 81 75 86 75 78 76 71
15 16 22 25 24 33 89 71 68 100 100 99 97 98 100 70 46 45 31 33 46 54 50 39 54 74 66 59 66 74 76 70 72 82 78 85 95 82 85 75 71 69 70 72 71

GFSSW_250_rhum_042.txt.gz
RH
54 37 39 34 47 50 51 52 51 35 30 34 46 55 67 49 33 33 31 35 44 72 97 24 17 17 16 16 14 14 14 15 12 10 10 14 100 79 74 65 50 14 15 15 16
48 41 39 32 58 59 58 59 56 40 37 35 47 56 66 55 35 28 34 34 56 63 100 40 34 29 27 19 20 19 17 17 12 11 24 92 100 100 78 44 18 20 30 17 16
55 44 54 41 67 79 71 66 56 42 39 37 72 65 94 65 33 25 24 24 42 64 82 100 50 40 47 36 33 23 25 22 22 18 63 93 100 100 93 72 36 24 19 18 24
64 51 54 61 71 69 70 67 58 42 40 40 53 57 73 70 34 24 18 17 24 50 64 94 80 66 74 65 49 45 42 38 27 32 100 100 100 82 100 82 90 81 80 41 35
56 54 51 80 86 84 74 68 64 45 40 40 48 73 100 75 32 22 19 17 20 37 52 99 95 89 89 90 76 82 78 70 97 64 85 100 100 100 99 99 96 94 100 83 76
53 68 80 89 82 94 87 66 66 48 40 40 46 77 78 60 28 22 20 19 19 26 36 86 96 97 99 100 100 100 92 100 100 84 90 87 100 100 100 98 78 94 100 93 92
60 97 100 100 84 79 92 65 64 45 47 41 44 78 66 60 30 19 20 20 18 30 47 65 100 90 90 100 100 100 100 100 100 94 89 96 92 89 90 96 92 100 100 95 100
73 100 77 69 45 71 55 59 46 42 44 42 46 64 90 61 30 19 20 20 19 36 52 58 100 79 100 100 100 100 100 100 98 100 100 97 85 86 85 75 93 84 94 100 100
92 90 74 60 38 41 62 57 42 45 40 45 48 87 100 55 27 17 21 20 21 44 62 69 84 88 100 100 100 100 100 100 100 97 94 97 86 94 99 92 100 100 100 100 100
64 56 36 44 40 46 53 68 46 49 47 44 63 76 68 37 23 18 21 20 23 45 72 87 94 100 100 100 100 96 100 100 94 95 88 97 100 100 100 100 100 100 100 100 93
40 36 42 47 43 55 68 50 50 56 52 51 66 74 66 30 19 19 21 20 26 52 71 96 100 100 100 100 100 80 100 100 93 85 100 100 100 100 99 100 100 100 85 100 100
39 36 42 38 40 46 46 53 58 56 50 65 81 68 57 28 18 20 22 21 34 60 83 100 100 100 100 100 100 100 100 83 90 99 100 100 100 100 84 100 100 100 100 100 100
40 38 35 40 39 48 48 61 61 55 55 72 68 66 39 23 19 22 22 22 42 63 80 90 100 100 100 100 100 99 99 89 97 99 100 83 98 100 100 100 100 100 100 100 100
36 42 38 43 46 51 50 56 50 54 67 80 70 70 48 22 18 24 22 25 49 69 76 94 95 100 100 100 100 90 94 70 66 84 94 100 100 100 100 100 100 100 100 100 100
35 40 35 54 58 63 58 60 62 62 68 92 64 44 36 21 19 25 22 28 53 68 88 96 88 83 100 95 96 100 75 71 99 100 100 100 95 100 100 92 77 76 69 68 57
40 46 42 55 67 74 75 69 71 67 84 85 64 53 37 20 18 26 25 25 58 66 86 59 89 99 92 100 100 100 100 100 100 100 100 97 74 70 96 99 91 78 35 39 38
45 47 53 78 73 83 75 73 79 88 72 90 62 44 38 20 17 29 31 31 56 57 96 85 90 88 94 100 100 100 100 100 100 97 86 98 100 96 61 64 39 51 39 31 22
46 54 57 83 83 93 80 84 83 92 79 84 50 74 40 20 18 29 41 41 43 89 98 96 100 98 100 100 100 92 88 100 100 81 90 70 57 46 51 53 47 28 33 40 40
48 71 66 85 100 93 90 88 100 94 100 81 46 58 40 23 18 33 50 62 74 89 88 78 90 90 96 98 100 99 97 92 82 63 40 45 45 58 46 28 31 41 45 37 36
60 69 75 93 100 100 99 90 86 98 90 78 66 74 60 25 20 39 56 79 84 91 98 92 98 78 84 69 68 70 95 42 41 48 50 45 41 30 25 39 48 43 35 31 34
52 88 73 99 100 100 99 100 100 95 97 87 69 76 52 27 24 29 52 81 99 100 90 68 92 54 55 48 38 74 60 56 57 46 42 29 26 41 52 52 44 40 40 42 46
90 91 100 100 100 100 96 100 100 91 87 93 99 56 41 30 35 33 36 65 75 82 80 63 70 41 25 50 63 82 64 41 37 34 29 28 48 52 57 50 47 44 49 52 57
78 89 100 98 100 99 100 100 100 92 100 100 84 58 47 48 87 100 64 90 70 60 58 69 53 51 54 58 53 45 36 25 26 31 34 46 57 60 50 50 54 54 56 59 60
91 98 74 92 97 83 96 100 100 99 100 100 94 62 58 81 100 100 100 88 79 100 100 69 56 47 37 36 29 28 26 32 38 41 48 70 47 69 56 60 65 68 67 65 67
31 45 73 95 88 96 85 100 100 87 100 82 76 56 65 100 100 100 100 87 97 88 100 54 40 33 28 30 42 37 42 41 47 60 59 54 55 61 63 73 79 80 80 89 76
28 36 45 91 98 60 80 100 100 100 98 72 74 72 71 100 100 97 90 89 90 75 52 40 31 30 43 41 47 38 38 61 72 55 49 56 68 65 63 83 82 92 84 70 83
23 28 33 34 36 42 73 100 93 90 68 87 64 83 80 89 100 97 99 83 44 43 38 32 42 43 43 35 32 55 50 68 54 52 62 70 75 73 74 84 99 68 57 61 64

GFSSW_250_rhum_045.txt.gz
RH
92 73 57 57 53 42 34 36 39 41 53 48 56 51 42 34 39 67 62 34 22 19 23 40 53 41 29 19 19 16 18 31 13 11 10 12 15 40 100 88 76 33 55 23 34
88 77 77 62 56 46 39 35 41 50 64 55 58 42 40 32 40 64 68 45 20 18 20 41 52 37 27 25 40 42 31 32 15 12 11 17 38 100 100 95 79 83 69 88 85
90 88 87 84 65 46 37 35 51 68 46 55 47 32 33 34 44 72 85 43 19 19 19 42 49 38 36 36 56 47 42 18 16 13 13 29 89 100 100 74 98 66 88 100 94
100 97 79 71 55 47 37 52 58 62 38 48 38 38 40 34 38 75 69 37 19 18 19 31 57 65 100 98 70 47 38 32 19 15 28 81 100 100 100 53 66 56 69 100 100
98 94 82 75 66 45 57 52 60 50 35 32 40 48 41 38 39 66 50 26 18 18 17 24 50 61 67 69 80 83 57 37 36 48 47 96 99 100 93 95 100 100 71 100 100
100 100 97 69 65 59 61 85 63 35 39 33 40 55 40 42 41 61 45 19 17 17 17 23 52 56 69 98 90 71 62 64 99 74 82 90 100 87 100 99 100 100 80 86 79
100 98 65 72 76 62 60 75 52 35 31 33 49 48 44 42 42 57 53 17 18 15 17 25 55 63 98 100 100 100 100 100 88 63 100 58 100 100 100 99 100 86 100 100 91
100 86 88 83 72 90 85 80 38 36 33 37 43 43 50 43 47 61 45 18 18 16 18 35 54 85 87 88 100 100 100 100 75 72 81 83 100 100 100 100 84 88 100 100 100
99 100 89 72 61 47 42 38 35 44 30 40 47 48 56 41 60 52 33 17 19 17 21 44 68 100 88 99 100 100 100 100 83 100 100 90 63 87 91 91 92 83 72 82 100
100 98 79 73 65 53 47 39 36 39 35 40 46 54 40 41 62 52 29 17 20 20 30 63 84 100 94 100 100 100 100 100 100 100 92 89 98 87 96 99 100 100 100 100 100
81 62 66 91 63 58 45 42 37 36 36 48 45 49 39 43 60 48 20 19 21 22 45 66 86 100 99 100 100 100 92 92 86 100 90 91 100 100 100 100 100 100 100 100 100
86 74 77 71 68 55 41 35 38 37 36 46 49 45 44 46 54 39 19 22 22 23 34 61 79 96 94 100 100 81 100 94 96 92 99 100 100 100 100 100 100 100 100 100 100
86 82 72 82 75 46 39 35 42 40 36 45 53 44 40 46 58 39 18 23 23 22 34 63 74 96 100 100 83 78 99 100 100 86 100 100 100 100 96 97 100 100 100 100 100
72 76 91 75 47 41 45 48 42 37 39 44 58 52 44 47 61 33 18 24 24 26 56 68 61 74 95 98 92 81 84 87 82 85 99 100 92 84 76 82 86 100 97 100 100
60 52 41 61 48 50 45 46 44 44 41 45 60 46 54 58 46 26 17 28 24 39 73 84 80 74 100 100 98 88 98 98 68 85 99 98 79 70 75 74 79 83 75 83 94
59 34 36 45 45 44 40 40 44 35 37 51 59 65 65 66 48 24 18 31 29 50 74 70 75 94 94 95 96 82 98 71 86 100 100 90 85 73 96 98 84 72 49 55 59
72 36 34 36 40 44 38 36 42 47 39 52 65 71 66 70 53 34 19 33 35 42 62 74 86 72 90 90 81 100 92 94 98 100 100 100 100 73 84 91 85 88 63 42 35
76 69 58 59 48 45 38 40 37 67 47 52 62 78 69 68 54 33 22 33 36 45 62 68 85 99 94 99 100 100 100 100 100 100 100 100 83 86 97 84 67 54 51 44 38
51 55 66 58 62 50 44 50 48 74 63 58 63 84 87 74 59 36 22 32 48 53 44 93 100 91 75 100 100 100 98 98 100 100 94 82 60 66 43 44 50 55 42 35 34
70 53 55 48 37 42 44 50 53 84 75 66 70 87 95 84 65 39 22 36 52 67 70 100 100 100 83 91 100 94 65 89 89 89 97 76 40 64 59 39 39 37 29 33 52
39 46 49 45 39 42 45 55 62 65 72 72 80 91 99 85 64 43 24 36 50 77 100 100 100 96 66 70 70 84 78 69 67 73 92 45 84 68 47 36 31 35 42 55 48
48 45 46 42 49 50 54 62 66 69 76 84 100 100 94 78 70 44 25 33 44 69 100 100 100 100 79 75 83 76 68 54 40 51 94 70 48 40 31 32 31 45 61 48 43
48 51 57 51 67 66 69 74 82 82 83 99 99 100 87 90 75 43 31 53 33 58 88 92 100 100 94 90 71 52 28 40 59 67 49 39 37 30 29 35 46 58 51 54 58
58 47 54 46 62 66 82 92 95 94 99 100 98 100 100 100 76 48 41 99 79 53 65 72 89 94 82 69 35 44 57 50 48 41 29 26 25 27 35 35 61 62 53 58 57
38 50 61 80 78 95 95 95 100 100 100 100 100 100 100 74 70 49 50 100 100 100 81 100 100 100 96 69 67 44 41 35 29 26 26 24 32 28 53 55 55 69 72 56 45
28 58 67 77 100 100 100 100 100 100 100 100 100 100 100 90 72 44 47 91 91 100 75 98 99 100 100 52 41 31 34 30 29 29 34 31 38 55 48 54 70 74 66 73 80
19 33 48 79 96 100 100 100 100 100 100 100 100 100 87 90 69 45 83 100 100 98 88 90 91 99 66 36 32 39 28 32 31 24 29 44 61 57 60 57 63 71 79 68 61

GFSSW_250_rhum_051.txt.gz
RH
100 100 100 100 90 99 88 88 100 100 100 97 86 67 51 33 26 24 23 20 22 26 29 26 23 15 16 17 23 51 55 27 30 14 17 14 14 15 42 97 68 100 100 86 66
98 100 100 100 100 97 79 98 100 100 100 100 85 62 46 29 26 28 25 21 22 23 28 24 20 15 17 18 26 52 68 24 24 44 28 28 20 21 44 100 100 100 100 100 100
98 100 94 81 90 73 93 99 100 100 100 100 81 58 37 35 35 37 28 20 24 25 29 24 17 17 17 17 30 81 51 30 23 36 39 45 34 48 43 100 100 100 100 100 82
95 100 100 94 90 82 90 100 100 100 100 95 78 45 35 35 40 35 29 24 23 32 29 24 15 18 16 21 60 81 58 46 40 63 93 68 73 72 100 100 100 100 100 84 100
98 100 100 100 100 95 91 100 93 100 100 100 73 48 37 41 42 32 30 29 23 32 27 21 17 17 17 23 44 46 50 83 82 94 99 100 100 94 96 100 100 100 97 90 100
100 100 100 100 100 89 100 99 100 100 100 99 74 52 37 49 40 33 32 28 27 30 22 18 19 17 18 28 53 50 47 97 94 100 100 100 93 67 55 100 100 100 85 100 100
100 100 100 100 83 94 100 100 100 100 100 100 84 61 36 57 39 35 31 29 29 34 23 16 19 19 26 36 73 69 69 100 100 100 94 64 83 54 99 100 66 100 94 100 100
79 99 100 84 100 100 100 100 100 100 100 100 97 63 42 54 45 36 33 28 30 37 27 17 19 27 35 51 90 74 79 100 97 98 86 81 75 80 100 99 95 89 80 100 100
86 95 100 100 100 100 100 99 81 100 100 100 100 69 47 63 42 37 37 31 33 37 28 18 20 32 41 60 97 97 96 97 98 96 100 96 100 100 100 100 100 100 100 100 100
100 100 100 100 98 86 78 97 99 100 100 100 100 70 53 61 40 35 35 31 32 32 23 20 22 33 48 88 85 86 99 100 100 99 100 94 97 100 100 100 100 100 100 100 100
100 100 99 88 81 78 96 94 100 100 100 100 100 73 59 69 59 32 28 28 27 34 27 20 24 54 56 71 83 96 100 100 99 82 96 100 100 100 100 100 100 100 100 100 100
100 100 92 99 100 96 100 98 100 100 100 100 98 78 79 72 55 34 30 32 29 32 30 19 29 60 72 87 95 100 100 100 80 89 100 100 98 99 99 100 100 100 100 97 94
86 100 80 96 93 100 96 100 99 89 100 100 98 81 70 42 36 35 31 36 32 35 29 20 29 59 73 88 82 86 94 86 78 97 85 100 100 100 100 100 100 100 100 100 97
50 99 68 75 100 100 100 100 100 100 100 100 98 81 60 44 36 32 40 39 34 36 32 21 32 57 72 93 94 85 86 90 76 96 100 100 100 100 99 100 100 100 100 100 100
51 58 46 34 67 100 100 100 100 100 100 100 95 83 68 45 32 36 44 44 37 36 31 20 36 60 67 97 100 90 97 89 76 80 100 94 90 100 100 100 100 100 100 100 99
66 45 48 38 34 78 90 100 100 98 93 80 83 79 78 54 34 48 47 42 43 37 30 19 38 65 74 100 100 97 90 89 85 89 93 100 99 100 97 100 90 85 82 78 82
86 56 57 48 36 54 93 92 99 88 95 81 77 82 73 73 63 51 40 44 40 48 37 24 40 57 68 94 100 100 95 89 95 84 66 83 68 72 95 93 97 100 100 86 79
98 64 60 50 46 46 94 70 74 100 93 90 80 74 86 93 75 54 45 40 38 48 37 36 37 51 65 90 100 100 95 96 82 74 66 91 100 84 86 86 84 81 93 99 78
99 92 75 74 60 59 57 54 88 100 91 100 91 73 92 88 65 49 56 44 42 44 41 45 26 55 55 64 85 92 96 87 85 79 60 61 71 77 71 63 56 54 66 64 59
93 97 100 98 77 76 56 53 71 95 94 97 99 92 95 70 64 51 65 51 50 50 42 41 28 50 56 51 62 77 84 92 94 85 85 71 68 60 56 60 60 58 52 38 31
96 92 100 100 81 82 75 61 83 88 75 87 80 69 66 65 70 68 76 57 55 55 60 49 37 32 68 67 61 71 87 94 89 86 88 85 97 91 78 68 62 32 23 22 30
100 92 100 100 56 74 81 100 99 91 94 100 99 86 77 60 82 86 77 66 59 55 61 54 45 38 45 67 64 66 93 100 100 98 99 86 84 76 67 56 43 43 51 47 49
52 86 100 97 91 100 100 100 100 92 92 86 89 74 93 80 79 98 83 74 75 57 56 56 57 51 32 56 61 74 100 100 97 91 77 57 58 38 35 39 56 75 48 44 42
46 54 90 60 86 97 100 100 100 94 100 100 96 84 92 99 100 100 93 77 75 74 66 52 48 52 42 28 33 76 84 78 96 87 64 47 30 32 50 72 81 48 31 31 28
46 34 40 50 82 100 100 100 100 80 94 85 86 90 98 100 100 100 95 82 70 82 94 57 50 48 51 51 36 65 87 94 87 50 53 58 54 45 41 34 31 28 29 38 35
30 38 36 46 93 92 90 98 100 100 100 100 100 100 100 100 100 100 90 89 93 91 84 67 47 44 51 61 52 43 56 74 58 41 79 48 45 40 34 33 37 42 41 41 41
17 31 43 51 53 60 51 78 100 100 100 94 100 100 93 100 100 100 100 98 96 90 87 90 54 45 49 62 56 60 83 55 49 57 59 45 34 38 32 34 36 39 41 47 71

GFSSW_250_rhum_057.txt.gz
RH
66 66 78 83 100 100 100 99 100 100 100 100 87 76 88 99 86 73 62 97 76 80 75 54 40 35 22 15 14 17 16 17 19 44 51 34 48 35 29 25 21 21 16 17 18
49 73 72 64 85 86 100 100 99 95 94 100 96 92 87 85 72 82 90 93 84 88 70 63 52 31 20 16 15 19 20 21 30 49 61 67 64 54 38 57 61 34 29 24 35
37 61 94 91 86 72 97 100 95 86 82 100 98 82 79 76 71 79 100 97 74 88 84 69 38 28 19 15 17 23 27 22 36 58 69 87 85 56 71 38 56 54 65 86 100
49 38 40 100 79 100 89 91 90 88 100 100 86 73 79 75 83 100 100 98 94 97 83 55 35 28 15 16 21 29 28 28 61 59 58 89 99 90 81 68 72 91 100 100 100
51 48 41 49 92 90 98 92 100 97 100 99 81 69 65 76 100 100 100 99 95 82 62 49 36 25 16 17 24 33 32 47 75 73 82 100 100 92 99 92 100 100 100 100 98
72 58 51 53 51 83 91 100 100 94 94 92 71 74 84 98 100 100 100 98 83 64 62 55 36 25 18 19 29 42 51 54 68 74 81 89 96 74 97 100 100 100 100 100 95
79 70 55 40 49 45 76 100 87 100 100 100 74 82 90 100 100 100 97 83 68 58 80 46 31 24 20 22 36 53 51 40 76 97 85 99 96 94 99 100 100 100 100 82 78
89 69 77 74 50 43 56 99 99 100 100 100 98 92 100 100 100 100 94 84 80 86 63 42 29 21 22 23 44 69 66 78 63 71 74 75 56 74 98 100 100 100 91 100 100
77 56 50 63 74 55 48 96 100 100 100 100 93 71 100 100 100 97 92 80 87 87 64 38 27 21 24 28 46 73 84 88 100 98 98 98 84 89 72 78 79 100 100 100 100
90 51 46 57 88 86 58 78 100 100 100 99 94 74 99 98 94 88 90 88 87 96 71 36 27 21 26 34 52 67 69 81 72 91 100 100 99 90 80 78 67 88 100 100 100
54 44 47 56 100 100 75 77 100 100 100 84 80 84 93 98 83 85 80 88 91 98 62 49 34 23 28 28 55 79 77 77 76 82 88 81 94 91 100 100 94 100 100 100 90
39 45 46 46 90 100 98 88 100 100 100 100 100 100 87 83 74 83 98 94 100 92 57 50 49 30 31 29 52 79 89 88 100 92 99 92 100 100 100 94 97 100 100 100 92
38 33 44 50 89 100 100 100 100 100 100 100 100 100 80 88 83 92 99 100 100 80 45 49 42 31 30 29 54 64 94 99 81 84 89 100 100 100 97 89 65 70 86 86 84
32 35 45 45 99 100 100 100 100 100 98 100 82 100 75 98 94 94 100 100 97 62 43 53 39 33 27 29 54 58 81 96 84 85 76 96 100 100 100 100 97 100 98 93 97
38 44 52 67 96 100 100 100 100 100 100 100 100 100 96 96 91 100 100 100 95 56 50 55 44 38 28 33 44 64 78 91 88 85 88 82 84 86 84 84 100 96 98 100 100
45 41 53 82 100 100 100 100 100 100 100 100 100 100 100 93 94 97 100 100 92 64 59 63 55 45 33 32 34 61 60 69 81 99 99 92 81 97 96 96 98 90 83 82 82
54 51 53 87 100 100 100 100 100 100 100 100 100 100 100 78 78 100 100 100 90 76 60 76 52 51 38 29 35 49 59 64 63 87 100 90 80 68 84 90 100 100 100 99 87
55 67 59 95 96 95 100 100 100 100 100 100 100 98 79 63 89 100 100 100 92 74 63 70 51 49 42 30 38 36 57 64 77 81 100 96 72 92 100 89 89 100 100 100 100
53 58 60 73 93 79 92 91 100 100 100 100 100 100 100 100 100 100 100 99 97 71 59 58 56 45 42 35 31 36 57 65 74 100 100 100 100 89 95 94 100 100 96 96 97
38 45 62 79 72 80 74 68 99 100 100 100 100 93 100 100 96 95 100 96 89 65 68 66 63 50 58 42 30 35 38 64 70 88 99 100 100 100 93 82 91 96 100 99 99
30 33 48 83 64 64 50 69 80 85 100 100 100 86 79 98 91 70 100 92 85 82 74 69 65 54 52 43 42 36 37 48 72 78 88 100 100 100 99 96 89 99 99 100 100
22 25 44 55 40 31 65 74 93 75 93 100 100 100 81 100 100 81 86 92 77 92 83 75 81 62 56 47 43 37 37 39 59 85 97 100 95 100 100 100 100 100 100 100 100
12 22 34 45 25 31 49 74 86 70 93 100 100 100 87 94 100 96 100 87 88 85 98 78 77 72 56 46 50 47 38 38 39 68 95 100 99 86 100 98 95 95 93 85 80
6 13 24 28 23 37 45 79 89 75 100 95 82 87 94 100 100 100 100 98 87 100 94 92 78 76 58 57 60 57 45 36 40 40 79 100 78 74 77 78 74 76 66 53 57
5 6 15 17 15 35 57 56 65 67 96 100 100 82 97 100 100 100 100 100 100 94 96 100 99 75 62 66 59 72 58 38 44 40 46 80 98 71 83 88 85 86 68 57 51
6 5 9 17 27 30 59 57 76 71 93 100 100 100 100 100 100 100 100 100 100 98 100 100 90 77 65 61 70 76 58 55 40 40 44 60 71 74 88 92 86 80 71 47 43
7 6 6 16 20 26 42 75 95 100 100 100 100 100 100 100 100 100 100 100 100 100 100 100 100 84 73 75 77 96 55 50 41 45 43 53 78 73 94 100 97 84 70 48 37

GFSSW_250_rhum_060.txt.gz
RH
32 63 40 39 42 60 72 74 81 80 100 100 100 86 77 74 82 89 75 68 63 65 63 63 62 60 68 56 27 20 15 17 29 28 20 29 32 40 37 39 46 24 32 100 93
37 39 37 40 47 36 50 80 74 78 88 100 100 100 88 70 77 78 66 71 55 99 57 65 69 64 63 31 25 19 14 24 31 28 26 44 50 50 64 73 76 93 80 100 100
42 41 50 52 52 45 38 39 75 69 80 100 100 100 95 94 95 68 63 70 60 97 74 88 74 69 40 32 24 15 15 31 30 29 44 54 57 68 63 76 86 53 88 93 76
57 53 59 68 69 55 42 44 58 88 99 100 98 85 100 100 97 82 67 68 100 70 82 79 64 48 49 26 23 15 22 37 38 53 50 67 73 63 74 89 82 66 51 47 62
51 69 69 66 78 71 48 42 51 59 83 76 90 100 100 88 82 62 88 100 98 82 83 76 63 47 58 34 20 17 32 49 54 70 79 80 80 76 77 99 100 100 73 50 100
62 52 80 71 98 90 65 47 41 42 54 72 99 100 100 99 81 71 96 100 100 86 85 75 65 57 60 39 19 20 42 55 60 75 77 90 80 98 88 78 100 100 100 100 100
63 63 68 71 100 100 81 60 53 50 45 67 88 100 100 63 77 100 100 100 84 93 90 81 57 82 56 37 20 27 48 58 49 72 74 85 83 86 85 99 100 100 100 100 97
76 100 100 97 100 99 97 68 52 41 40 43 72 82 84 65 90 100 100 100 84 100 95 78 61 84 58 32 21 32 55 66 68 76 80 79 87 82 92 98 100 100 100 100 91
100 100 100 100 100 100 95 95 63 44 47 52 64 100 92 98 95 100 100 85 93 100 94 78 80 83 48 30 23 30 57 66 65 90 98 99 86 86 99 100 100 100 100 100 95
100 100 100 100 100 100 99 100 77 45 43 71 52 94 100 98 97 100 100 95 100 95 82 85 97 70 40 30 23 31 62 69 67 80 100 95 78 88 74 75 82 92 96 99 92
95 97 100 94 90 100 100 86 63 47 50 74 73 78 100 84 87 82 100 94 81 88 100 100 97 52 39 29 22 29 68 63 78 86 100 100 99 100 93 74 63 60 78 89 85
61 81 76 78 83 82 86 96 62 48 60 100 88 72 80 95 100 100 99 94 88 86 100 100 80 47 38 33 24 29 62 65 69 100 92 98 100 100 100 100 92 86 90 100 93
63 76 73 67 67 68 93 78 98 50 41 100 100 97 99 99 100 100 96 85 76 94 100 98 78 46 45 35 28 28 54 70 66 100 100 82 99 100 100 100 75 61 83 99 100
75 58 61 58 65 72 71 68 54 43 46 100 100 97 100 100 100 91 98 84 81 98 100 100 74 54 52 33 29 29 47 62 68 84 90 90 88 89 88 77 95 98 89 82 83
59 80 65 67 86 81 70 61 52 40 38 100 100 92 90 88 100 100 97 98 92 100 100 100 77 60 58 34 27 32 40 62 62 85 78 85 84 93 100 100 100 100 100 93 87
54 74 63 61 75 70 51 45 45 38 46 100 100 100 86 72 100 100 100 100 88 100 100 100 69 65 60 40 33 30 33 57 70 68 70 77 72 72 76 91 100 100 100 100 100
45 55 67 66 84 78 64 46 32 31 60 100 100 100 97 91 100 100 100 100 88 99 100 100 62 68 56 46 38 32 32 50 64 73 75 80 89 91 90 90 83 84 92 100 100
38 48 58 69 75 75 64 42 29 40 73 100 100 100 100 81 97 100 100 100 94 100 100 98 68 64 58 51 42 36 30 39 62 69 76 79 88 100 90 96 92 85 81 72 89
23 38 44 71 57 56 60 36 30 48 95 100 100 100 100 100 100 100 100 97 93 100 100 94 74 65 60 57 42 47 36 35 53 70 70 92 85 80 98 100 98 100 100 74 56
18 21 37 61 61 47 52 34 35 68 96 100 100 100 100 100 97 98 89 98 100 100 90 87 79 79 72 64 54 52 36 37 44 62 77 76 83 68 81 74 96 78 81 78 80
10 15 22 42 59 52 30 37 40 61 90 100 100 100 100 100 100 94 62 100 98 100 100 71 71 83 81 70 64 61 41 40 39 40 54 79 77 76 79 81 90 98 90 94 88
8 8 18 27 30 23 34 49 48 81 100 100 100 100 100 100 100 100 100 100 100 100 100 64 87 89 99 80 66 64 50 36 43 42 45 72 82 74 75 76 68 84 83 81 81
7 8 10 20 16 18 53 57 43 100 100 100 100 100 100 100 100 100 100 100 100 100 98 82 79 82 99 76 85 74 52 44 36 46 42 45 87 86 96 80 77 77 76 71 77
6 6 7 7 12 21 29 46 42 98 100 100 100 100 100 100 100 100 100 100 100 100 98 76 85 100 99 82 92 78 60 46 44 56 47 44 44 48 87 98 88 75 81 81 80
4 6 8 7 7 14 21 40 43 83 100 100 98 100 100 100 100 100 100 100 96 88 95 88 98 100 91 100 96 89 68 53 52 60 62 50 46 43 43 90 93 96 89 92 94
4 6 8 8 7 10 22 24 40 81 100 100 100 100 100 100 100 100 100 100 93 90 84 92 100 100 100 100 93 97 75 58 57 60 54 52 52 44 43 51 63 86 98 100 100
5 6 7 8 6 5 13 32 49 83 100 100 100 99 96 100 100 100 100 100 100 100 94 100 100 100 100 88 94 100 67 67 64 59 56 47 45 52 50 61 65 64 95 100 100

GFSSW_250_rhum_063.txt.gz
RH
49 37 33 35 38 37 48 43 39 40 49 59 67 71 61 81 94 100 100 83 100 87 66 49 87 78 57 44 53 40 22 19 14 15 21 26 26 30 30 25 29 22 20 59 90
46 72 46 40 42 42 39 43 45 43 39 46 66 62 55 100 95 100 87 84 100 83 72 70 85 64 62 62 50 31 21 19 14 20 28 30 34 35 38 42 49 31 25 75 82
56 46 87 66 42 38 36 37 54 54 41 37 48 68 96 91 76 74 86 100 100 78 56 90 89 81 68 61 44 27 30 18 17 29 36 46 59 44 43 100 100 55 52 85 98
99 63 51 91 57 45 44 46 46 62 56 40 38 39 68 71 80 100 100 100 93 73 92 100 98 76 74 54 40 35 32 19 27 32 41 61 67 63 52 100 100 83 55 100 100
84 67 79 45 62 58 55 54 53 65 75 45 45 39 46 75 70 100 100 100 99 91 100 100 92 77 92 56 37 50 25 23 34 33 44 67 90 76 87 79 91 45 32 73 100
78 67 43 43 43 67 71 68 62 56 92 61 53 48 40 40 68 100 100 92 78 100 100 100 82 90 96 59 50 42 24 27 39 39 60 83 86 76 96 94 68 88 51 100 100
100 53 88 67 46 41 71 71 68 71 94 86 68 59 44 38 56 83 64 63 100 100 100 97 100 100 89 59 63 37 22 32 47 46 72 63 100 100 90 100 90 80 76 100 100
82 63 84 62 66 84 60 56 71 62 74 93 79 62 55 42 37 58 67 86 100 100 100 100 100 98 73 86 55 32 21 38 51 68 69 86 100 100 100 93 100 100 95 92 100
100 100 100 84 48 54 67 100 99 100 100 80 100 73 65 45 40 53 99 100 100 100 100 100 90 87 91 93 48 32 22 41 54 58 100 81 97 100 84 100 100 100 98 100 76
54 82 100 100 100 99 70 89 96 100 100 100 98 100 71 49 38 44 100 100 100 98 96 99 79 98 97 80 48 32 24 45 63 64 99 89 98 96 100 100 100 100 100 100 72
100 46 81 82 88 99 100 100 98 100 100 100 100 100 94 61 41 46 100 98 98 100 100 95 75 100 85 72 53 28 24 48 71 73 90 100 100 83 99 98 93 95 100 94 100
78 100 100 95 62 85 82 97 100 100 100 100 77 100 91 53 44 48 56 90 100 100 100 81 78 100 78 78 57 39 22 36 73 75 97 91 92 100 90 83 77 74 85 80 90
53 58 73 79 82 72 82 77 76 98 100 100 100 92 88 58 49 58 68 100 100 100 87 73 91 100 99 85 53 39 23 32 60 74 100 100 75 100 96 95 90 81 77 74 89
43 40 43 45 47 46 52 67 68 73 99 100 92 100 98 68 51 82 73 100 100 84 92 81 100 100 100 88 51 37 27 30 59 75 69 67 73 92 91 100 75 88 96 100 100
30 33 37 46 55 46 41 56 60 58 75 90 88 85 99 63 79 95 85 100 90 90 99 83 100 100 100 85 50 42 32 29 52 70 78 70 70 68 69 77 79 89 98 86 94
21 28 36 47 50 57 57 57 58 53 52 70 76 71 73 61 88 100 88 100 99 100 100 89 100 100 100 86 47 46 37 32 27 56 73 78 73 66 84 98 100 100 100 88 100
20 21 25 35 50 55 52 61 66 45 77 76 68 74 65 47 86 100 76 100 100 100 100 75 99 100 100 80 49 54 45 33 29 44 64 67 76 86 83 84 93 100 100 96 100
17 18 21 25 39 45 48 52 37 71 97 69 89 76 64 47 89 100 79 79 98 100 100 99 85 100 100 60 55 71 62 48 35 32 60 63 66 76 84 87 96 89 82 96 94
11 15 18 24 29 35 44 32 38 60 91 80 88 63 50 47 87 100 90 100 100 100 100 98 94 100 100 53 66 78 76 57 43 33 33 40 64 69 74 86 84 100 100 68 78
7 8 15 21 26 24 24 17 52 54 71 86 76 63 52 42 83 100 96 100 100 100 100 99 95 100 100 55 72 71 82 62 52 41 32 33 44 62 73 68 75 89 86 73 81
7 6 10 15 21 18 15 22 58 49 59 64 89 75 45 44 97 100 100 90 100 100 100 95 94 100 90 58 82 79 99 79 61 45 40 36 37 54 75 68 60 64 67 100 79
6 7 9 8 10 11 14 28 56 57 50 70 89 75 44 54 100 100 100 100 100 93 100 77 100 100 99 78 92 86 100 81 67 56 44 43 38 36 45 90 85 66 60 56 64
5 6 8 7 5 6 17 25 31 42 48 71 84 69 48 80 100 100 100 100 88 86 91 75 98 100 100 94 93 80 99 83 64 66 53 49 42 36 37 51 96 98 87 76 62
4 4 6 5 7 6 11 20 26 45 52 66 78 65 50 95 100 100 100 100 100 61 78 58 100 100 100 100 80 100 89 83 68 66 64 50 49 43 44 43 42 58 100 100 92
3 4 6 6 8 9 8 15 30 34 53 64 78 62 52 99 100 100 100 100 100 100 86 69 90 100 100 99 89 100 100 100 70 69 69 58 52 44 45 47 50 54 79 93 99
2 4 8 7 9 6 6 10 26 41 64 72 89 77 61 100 100 100 100 100 100 100 100 99 99 100 100 98 96 100 100 100 81 79 68 71 55 45 45 50 51 47 52 94 100
3 6 10 6 7 5 7 8 20 42 65 86 92 86 76 100 100 100 100 100 100 100 100 100 100 100 100 93 87 100 100 97 93 77 71 64 54 52 47 48 55 52 51 54 90

GFSSW_250_rhum_066.txt.gz
RH
47 55 58 43 56 46 44 38 40 40 49 44 38 40 34 32 46 55 64 100 100 98 68 94 100 97 63 88 78 85 50 38 22 14 11 14 15 32 73 44 50 100 100 100 92
36 51 64 69 64 52 46 39 41 44 43 41 39 41 36 34 40 58 52 87 84 64 100 100 82 56 100 86 99 60 48 30 23 15 13 22 18 61 100 83 68 100 100 92 71
57 48 47 56 76 77 64 60 56 46 43 39 34 36 38 36 33 45 63 77 78 96 100 75 63 93 100 99 69 53 46 27 25 17 18 25 21 34 83 100 100 100 100 100 94
72 64 54 56 58 87 81 62 74 55 44 42 42 41 42 46 43 40 36 58 66 82 100 100 68 100 97 100 88 79 41 33 26 16 28 23 28 28 88 75 98 100 100 73 100
90 75 68 59 99 92 100 83 64 82 61 50 50 50 50 71 48 40 37 37 56 78 100 66 100 100 100 80 100 66 54 40 25 17 35 32 33 79 88 91 64 64 75 100 93
99 97 88 73 64 100 97 63 52 48 68 61 62 56 53 99 61 53 45 36 40 72 47 90 100 100 96 100 100 50 79 37 23 22 40 45 77 94 100 100 100 73 59 88 64
100 100 96 69 79 100 100 96 68 43 49 63 67 68 62 56 80 72 50 40 31 51 46 100 100 94 100 99 80 59 84 37 22 34 50 41 88 100 100 100 100 96 43 67 66
100 100 100 83 74 99 100 100 96 42 60 50 58 76 69 52 52 83 73 60 41 54 76 100 100 97 97 92 70 93 58 43 26 38 56 42 79 92 100 100 98 92 46 58 88
53 90 97 98 74 66 86 100 100 48 70 62 75 91 84 68 91 100 89 81 59 42 63 100 100 82 91 97 74 91 60 51 26 32 55 59 64 100 94 100 95 91 61 72 96
54 68 57 93 77 62 65 100 99 57 57 48 60 88 100 100 100 100 100 85 73 44 100 100 92 100 99 84 91 57 54 51 25 47 63 74 94 94 91 93 95 73 67 81 80
66 89 100 80 96 100 88 66 94 100 90 77 48 68 100 100 100 100 100 89 62 49 41 87 97 72 91 77 85 79 87 46 26 46 73 80 62 52 77 84 50 85 92 80 73
100 74 65 94 98 100 100 79 64 61 91 100 99 66 98 100 100 100 100 100 65 50 37 100 98 87 82 73 100 100 86 39 30 33 69 96 100 95 86 64 69 68 94 100 74
74 77 60 62 50 57 93 100 92 91 65 74 84 100 100 100 100 100 100 100 59 47 42 97 87 99 74 84 100 100 79 38 29 25 53 79 100 98 71 100 100 82 78 89 100
90 81 92 87 81 74 46 58 69 91 84 66 97 70 83 93 100 100 99 89 61 45 39 100 100 74 71 100 100 100 80 37 28 25 45 69 62 54 92 76 99 76 83 80 78
64 72 66 68 61 82 59 54 52 52 58 77 56 72 62 84 100 100 97 100 75 61 39 100 95 69 70 100 100 100 85 37 40 28 40 61 76 59 68 66 98 73 83 91 100
34 36 36 38 47 48 48 44 46 51 47 42 56 70 62 57 71 92 93 100 100 69 59 100 87 91 64 100 100 100 87 39 44 34 30 51 65 64 75 68 97 95 97 100 99
19 18 19 20 22 23 26 29 34 29 41 43 39 49 46 51 62 72 98 76 75 80 86 100 98 89 100 98 100 100 92 44 51 37 32 31 52 59 63 66 70 84 100 85 93
15 16 16 17 21 20 21 24 17 26 35 41 46 54 52 62 70 72 75 75 63 75 95 100 70 100 100 88 100 100 83 51 61 46 38 34 31 60 64 70 77 72 69 80 74
11 11 12 15 18 17 16 16 16 29 42 58 68 83 74 73 100 89 77 70 66 97 96 100 100 100 100 100 100 100 76 60 62 72 48 38 31 38 72 68 74 68 62 79 79
7 6 6 9 12 14 12 10 18 28 44 48 49 79 95 98 99 90 81 71 58 97 100 82 97 100 100 100 100 100 61 64 67 68 70 52 34 32 40 53 72 74 65 78 99
8 7 9 8 7 7 10 12 24 25 32 34 46 65 80 100 92 81 87 75 58 96 100 100 90 81 100 100 100 100 62 59 68 63 59 58 43 38 33 38 47 69 90 70 70
8 8 12 8 7 7 9 10 21 24 32 37 45 57 69 100 90 80 82 61 60 100 100 85 100 83 100 100 99 100 87 56 68 64 62 64 39 41 41 34 37 36 49 67 79
9 11 13 8 6 8 10 10 10 16 20 36 40 71 80 100 94 80 77 60 60 100 100 97 74 86 100 100 93 100 98 67 76 60 64 60 45 35 47 38 37 43 41 52 62
8 9 11 6 9 10 10 9 8 14 23 27 38 65 98 96 89 78 76 57 65 100 100 100 69 71 76 100 100 99 96 72 79 100 100 100 61 43 46 45 41 38 48 43 37
7 7 15 13 21 27 11 8 9 9 17 26 41 39 84 97 73 69 66 60 81 100 100 100 94 59 72 100 93 100 100 94 94 89 100 100 82 59 53 48 43 43 38 46 54
4 7 15 17 22 15 11 6 8 12 16 25 33 43 65 99 73 72 66 51 100 100 100 100 94 65 86 96 100 100 98 82 100 100 100 98 87 77 63 54 44 40 46 42 49
3 7 8 10 11 11 16 18 14 11 11 23 41 52 62 88 75 54 64 50 100 100 100 100 100 100 82 60 81 86 97 88 100 100 100 97 87 80 72 63 52 42 54 55 47

GFSSW_250_rhum_069.txt.gz
RH
88 70 74 72 61 68 59 56 49 50 49 44 39 45 44 41 33 29 28 25 34 42 66 72 70 67 97 71 55 85 98 76 64 52 21 14 12 33 31 20 82 87 100 100 100
100 100 100 100 76 74 37 46 62 69 55 52 41 46 45 39 35 36 32 34 31 36 41 57 49 89 69 60 80 76 100 82 91 36 19 13 18 49 48 31 36 82 100 96 100
62 81 70 86 76 63 60 39 60 61 72 53 52 52 46 42 38 42 38 46 36 28 28 43 51 83 71 81 57 100 75 100 70 27 18 15 17 91 96 98 100 100 97 94 100
48 54 60 49 43 57 58 51 41 54 56 86 84 71 58 46 44 43 49 54 44 32 32 32 47 59 68 55 98 88 100 92 44 26 20 31 22 86 94 100 91 88 85 80 95
100 100 67 50 51 32 63 64 43 48 74 100 100 74 65 55 50 47 50 67 72 35 32 36 39 58 89 46 100 77 100 61 49 32 22 54 30 80 100 91 94 90 100 100 64
100 100 100 98 58 40 40 72 70 71 60 71 94 93 53 59 61 52 56 52 55 49 33 33 48 52 92 82 100 96 73 62 56 35 23 52 45 55 99 100 100 100 100 98 86
100 100 99 94 93 49 46 44 63 74 67 57 64 100 63 72 51 59 60 66 59 46 42 56 59 56 67 100 100 77 87 66 46 54 23 30 76 80 100 100 100 100 100 77 68
99 100 100 96 82 82 84 94 69 78 81 59 92 96 97 73 36 52 51 57 67 59 63 79 49 43 59 100 87 99 78 69 56 75 25 36 86 99 100 100 91 87 74 71 76
100 96 100 96 88 75 91 92 91 98 80 74 100 100 100 84 47 46 68 82 73 100 90 91 77 40 46 99 80 58 77 57 98 61 25 38 48 73 88 94 95 53 71 95 71
100 100 100 100 100 100 89 88 72 78 100 100 80 77 100 100 58 50 60 86 99 84 100 92 84 53 44 67 64 67 64 91 100 40 24 37 63 47 42 48 58 95 94 98 68
100 100 100 92 82 100 100 93 80 54 66 81 87 68 73 100 64 42 50 53 92 100 100 90 77 64 46 37 57 72 62 100 97 50 28 29 75 81 74 68 76 100 100 100 72
97 97 84 80 70 49 83 85 77 52 61 92 78 64 55 84 96 99 68 51 69 100 100 100 89 61 43 34 69 82 85 100 90 62 28 25 45 75 79 80 100 96 80 95 98
100 94 98 100 98 100 96 100 89 84 69 100 100 100 100 49 88 100 77 66 78 94 100 100 89 51 39 39 99 61 96 100 100 64 26 25 37 58 61 54 75 98 64 55 98
99 100 100 97 100 100 100 100 97 68 48 55 80 100 100 73 40 74 100 100 80 99 100 100 82 57 37 89 89 62 100 100 100 70 28 27 30 49 55 50 64 78 85 77 67
88 93 97 100 98 98 86 99 99 57 40 48 41 53 80 100 75 61 56 68 99 100 96 100 78 60 50 100 95 58 100 100 100 79 34 30 26 46 51 48 53 74 87 70 74
66 60 62 67 78 91 83 74 83 67 55 50 56 52 45 44 72 92 81 73 79 81 82 100 100 68 98 100 82 71 95 100 100 85 38 33 29 32 50 55 54 61 85 77 79
48 46 37 40 54 42 53 59 58 38 68 52 65 58 52 56 59 45 73 90 86 83 75 97 100 75 100 98 71 98 85 90 100 92 39 39 32 25 37 58 72 61 57 58 62
25 24 23 25 29 30 37 32 21 22 32 49 43 50 48 58 58 49 49 55 70 76 72 54 100 99 100 79 52 100 100 99 100 94 41 45 37 30 27 35 59 83 87 70 69
15 16 16 16 15 13 13 13 14 19 26 40 42 44 49 47 50 54 48 52 53 63 64 55 69 82 88 77 87 100 100 100 100 92 43 46 42 46 31 27 29 50 64 81 84
16 15 16 16 13 12 12 16 16 18 21 25 21 21 26 32 40 61 52 53 63 57 54 52 69 74 68 82 69 74 100 100 100 89 48 47 46 53 35 32 29 36 45 55 51
14 14 17 14 11 11 12 13 13 14 16 14 15 21 24 32 30 50 52 67 72 74 49 48 62 75 77 89 100 73 100 100 100 100 48 46 48 55 43 34 32 31 34 50 57
8 8 12 8 7 8 10 10 8 9 12 13 18 17 22 38 42 61 46 76 97 88 81 100 81 62 63 100 100 68 100 100 100 100 86 53 48 64 57 43 39 37 33 34 39
9 11 11 9 8 11 11 11 10 9 9 11 16 20 28 35 35 42 63 98 99 87 98 99 79 67 65 70 100 76 90 100 100 100 100 54 61 100 96 58 46 40 38 35 32
10 9 10 10 11 12 12 13 12 9 11 9 12 18 23 27 30 49 85 99 100 100 96 97 81 70 74 69 100 100 94 100 100 100 100 62 76 62 100 79 53 46 37 34 34
6 7 12 12 30 24 22 23 12 12 14 13 10 15 24 32 32 48 95 99 96 100 100 94 78 76 81 76 100 100 100 100 100 100 100 57 86 65 100 97 69 57 53 44 37
7 11 19 22 22 23 22 27 21 18 12 15 13 15 24 38 42 69 87 89 88 78 100 89 84 86 90 86 96 82 91 79 100 100 100 79 73 80 100 100 74 70 68 54 40
5 7 10 11 15 20 37 51 45 13 16 24 15 12 19 38 38 56 96 81 73 68 69 74 94 86 100 100 100 71 78 91 100 100 100 80 71 76 98 100 82 82 85 68 53

GFSSW_250_rhum_072.txt.gz
RH
69 74 68 57 43 57 56 53 61 60 53 58 52 56 51 44 42 43 41 35 35 34 32 31 25 30 37 39 50 69 57 51 85 81 89 53 22 15 19 23 28 42 90 100 82
87 91 72 63 54 52 80 86 79 89 79 47 34 37 51 49 44 46 44 40 40 40 38 37 30 26 28 38 54 78 52 62 55 85 92 32 21 13 31 45 50 80 98 100 80
84 100 98 69 57 55 92 90 99 87 89 58 41 36 43 56 46 56 53 50 43 41 42 38 38 27 35 42 49 60 58 45 63 90 56 25 32 14 40 56 57 94 100 99 66
100 100 100 100 100 96 67 50 63 60 53 60 48 39 38 48 70 62 75 64 48 45 45 44 42 26 33 45 52 70 73 82 93 60 58 31 30 20 46 90 81 56 100 100 84
91 100 100 100 100 96 100 81 73 71 50 41 33 36 44 41 72 100 100 76 60 51 51 50 49 36 30 45 48 47 72 75 71 60 44 55 30 31 71 97 91 99 90 100 98
90 87 100 93 100 100 100 100 93 84 69 50 33 33 70 49 38 48 81 67 56 60 60 53 56 45 32 41 51 42 63 75 69 64 48 72 24 40 100 80 86 93 98 94 100
80 100 100 100 100 100 100 100 100 100 99 93 66 39 52 80 55 53 59 63 73 50 52 48 52 47 46 53 69 41 42 61 58 55 65 76 26 34 79 80 69 50 72 70 64
89 100 100 100 100 100 100 100 97 92 97 97 78 49 43 52 48 67 85 88 66 59 40 32 33 69 78 85 76 54 48 57 54 57 84 63 25 29 77 100 87 64 66 48 40
100 100 100 100 100 100 100 100 96 100 100 86 66 72 61 67 64 72 88 94 66 49 50 42 35 52 61 98 87 57 40 43 53 67 88 76 32 24 48 100 96 83 73 55 44
100 100 100 98 80 100 100 97 87 100 95 90 68 86 94 100 99 80 98 100 100 78 57 41 56 96 69 99 82 63 38 38 65 75 99 94 30 24 50 54 87 84 87 58 50
97 100 100 100 99 75 100 100 100 100 100 100 100 93 78 87 98 100 95 95 90 100 62 35 39 97 77 100 82 60 37 49 67 95 100 97 33 24 41 58 66 72 73 98 92
100 100 100 100 100 100 100 100 100 100 100 100 100 100 100 85 75 68 71 90 76 80 80 62 50 41 73 100 89 45 37 67 66 83 100 92 39 23 44 63 70 99 97 98 98
100 100 100 100 100 100 100 96 98 90 95 100 96 82 100 84 88 91 66 76 64 63 87 79 58 47 100 100 90 41 45 50 55 100 100 94 39 25 38 56 45 60 65 80 80
100 100 100 100 100 100 100 99 89 81 96 100 99 73 92 100 79 80 100 100 88 63 97 70 83 58 82 95 92 50 52 54 63 93 100 89 46 25 30 56 50 51 76 82 91
100 89 91 98 100 100 100 96 80 77 73 92 100 100 100 100 100 100 85 92 100 100 61 80 100 88 95 100 96 68 77 92 57 82 90 94 54 26 28 50 46 62 71 88 77
88 84 78 80 100 85 90 82 81 72 53 73 90 94 98 100 100 100 100 58 44 86 98 58 73 95 100 100 100 72 90 98 65 47 50 86 62 28 28 30 54 60 76 94 79
70 68 76 78 97 74 96 83 61 51 71 85 99 91 93 97 98 96 99 79 56 50 74 98 92 69 69 91 100 81 96 92 81 65 78 100 62 33 31 29 34 51 65 95 88
54 58 57 66 67 63 64 80 66 98 88 92 64 64 92 91 100 96 89 64 56 64 69 64 100 98 90 88 100 97 82 100 75 70 93 100 75 33 30 34 29 31 46 56 61
28 30 34 49 40 45 44 41 52 64 59 64 51 47 51 64 65 65 63 68 74 70 64 74 60 75 88 83 81 99 68 95 59 100 95 100 89 37 34 32 30 27 31 53 62
18 21 25 26 25 24 25 27 33 40 31 23 25 30 35 40 44 46 48 52 53 49 72 67 63 61 65 77 74 87 84 67 65 100 66 100 100 42 38 41 32 30 29 33 53
18 14 16 14 14 13 16 19 20 20 14 12 14 15 15 19 28 33 25 34 38 49 52 53 52 64 59 66 69 66 76 70 94 70 88 100 100 53 43 58 51 34 28 28 30
16 13 18 16 15 16 19 20 20 16 12 11 13 15 16 19 24 18 19 24 29 46 46 59 58 66 68 57 62 64 70 65 82 64 100 100 100 100 52 78 99 60 33 31 30
14 14 15 14 14 17 19 21 19 17 13 12 14 15 16 16 18 19 22 26 26 27 28 46 47 62 59 53 54 53 58 78 100 81 59 100 100 100 65 68 98 97 55 43 41
9 8 9 10 11 11 13 17 16 15 10 10 11 11 11 13 18 21 22 28 29 33 47 50 60 66 86 93 96 92 84 96 100 100 97 100 100 100 92 54 67 100 90 55 53
10 8 12 13 14 16 18 20 24 16 11 10 12 12 12 10 16 24 28 32 39 40 54 79 90 99 100 100 99 82 75 100 74 100 89 100 78 100 100 58 56 100 100 80 63
8 9 12 14 15 13 18 27 21 16 11 10 14 12 11 12 10 21 28 33 47 70 63 85 100 100 100 100 98 82 74 100 68 98 99 83 100 100 100 99 57 91 100 86 60
8 8 8 10 12 15 45 48 24 25 22 17 19 12 10 20 12 17 27 36 33 48 76 70 97 100 100 100 100 87 81 91 76 47 64 100 100 100 100 100 77 68 82 93 87